Time,TemperatureF,DewpointF,PressureIn,WindDirection,WindDirectionDegrees,WindSpeedMPH,WindSpeedGustMPH,Humidity,HourlyPrecipIn,Conditions,Clouds,dailyrainin,SoftwareType,DateUTC
2013-02-18 00:00:00,41.5,32.2,30.38,East,90,0.0,1.0,69,0.00,,,1.49,meteohub,2013-02-18 05:00:00,
2013-02-18 00:01:00,41.5,32.2,30.38,East,90,0.0,0.0,69,0.00,,,1.49,meteohub,2013-02-18 05:01:00,
2013-02-18 00:02:00,41.5,32.2,30.38,East,90,0.0,0.0,69,0.00,,,1.49,meteohub,2013-02-18 05:02:00,
2013-02-18 00:05:00,41.4,32.4,30.38,East,90,0.0,0.0,70,0.00,,,0.00,meteohub,2013-02-18 05:05:00,
2013-02-18 00:06:00,41.2,32.2,30.38,East,90,0.0,0.0,70,0.00,,,0.00,meteohub,2013-02-18 05:06:00,
2013-02-18 00:07:00,41.2,32.2,30.38,East,90,0.0,0.0,70,0.00,,,0.00,meteohub,2013-02-18 05:07:00,
2013-02-18 00:11:00,41.0,32.4,30.38,East,90,0.0,0.0,71,0.00,,,0.00,meteohub,2013-02-18 05:11:00,
2013-02-18 00:12:00,41.0,32.4,30.38,East,90,0.0,0.0,71,0.00,,,0.00,meteohub,2013-02-18 05:12:00,
2013-02-18 00:13:00,41.0,32.4,30.38,East,90,0.0,0.0,71,0.00,,,0.00,meteohub,2013-02-18 05:13:00,
2013-02-18 00:17:00,40.8,32.9,30.38,East,90,0.0,0.0,73,0.00,,,0.00,meteohub,2013-02-18 05:17:00,
2013-02-18 00:18:00,40.8,32.9,30.39,East,90,0.0,0.0,73,0.00,,,0.00,meteohub,2013-02-18 05:18:00,
2013-02-18 00:19:00,40.6,32.7,30.38,East,90,0.0,0.0,73,0.00,,,0.00,meteohub,2013-02-18 05:19:00,
2013-02-18 00:22:00,40.6,33.1,30.38,East,90,0.0,0.0,74,0.00,,,0.00,meteohub,2013-02-18 05:22:00,
2013-02-18 00:24:00,40.5,32.9,30.38,East,90,0.0,0.0,74,0.00,,,0.00,meteohub,2013-02-18 05:24:00,
2013-02-18 00:26:00,40.5,32.9,30.38,East,90,0.0,0.0,74,0.00,,,0.00,meteohub,2013-02-18 05:26:00,
2013-02-18 00:27:00,40.3,32.7,30.38,East,90,0.0,0.0,74,0.00,,,0.00,meteohub,2013-02-18 05:27:00,
2013-02-18 00:31:00,40.3,32.7,30.39,East,90,0.0,0.0,74,0.00,,,0.00,meteohub,2013-02-18 05:31:00,
2013-02-18 00:35:00,40.1,32.9,30.38,NE,45,0.0,0.0,75,0.00,,,0.00,meteohub,2013-02-18 05:35:00,
2013-02-18 00:36:00,40.1,32.9,30.38,NE,45,0.0,1.0,75,0.00,,,0.00,meteohub,2013-02-18 05:36:00,
2013-02-18 00:37:00,40.1,32.9,30.38,NE,45,0.0,1.0,75,0.00,,,0.00,meteohub,2013-02-18 05:37:00,
2013-02-18 00:42:00,40.1,33.1,30.38,NE,45,0.0,1.0,76,0.00,,,0.00,meteohub,2013-02-18 05:42:00,
2013-02-18 00:43:00,40.1,33.1,30.38,NE,45,0.0,1.0,76,0.00,,,0.00,meteohub,2013-02-18 05:43:00,
2013-02-18 00:47:00,39.9,32.9,30.38,NE,45,0.0,1.0,76,0.00,,,0.00,meteohub,2013-02-18 05:47:00,
2013-02-18 00:48:00,39.9,32.9,30.39,NE,45,0.0,1.0,76,0.00,,,0.00,meteohub,2013-02-18 05:48:00,
2013-02-18 00:50:00,39.9,32.9,30.39,NE,45,0.0,0.0,76,0.00,,,0.00,meteohub,2013-02-18 05:50:00,
2013-02-18 00:51:00,39.9,32.9,30.39,NE,45,0.0,0.0,76,0.00,,,0.00,meteohub,2013-02-18 05:51:00,
2013-02-18 00:52:00,39.9,33.3,30.39,NE,45,0.0,0.0,77,0.00,,,0.00,meteohub,2013-02-18 05:52:00,
2013-02-18 00:57:00,39.7,33.1,30.38,NE,45,0.0,0.0,77,0.00,,,0.00,meteohub,2013-02-18 05:57:00,
2013-02-18 00:58:00,39.7,33.1,30.38,NE,45,0.0,0.0,77,0.00,,,0.00,meteohub,2013-02-18 05:58:00,
2013-02-18 00:59:00,39.7,33.1,30.38,NE,45,0.0,0.0,77,0.00,,,0.00,meteohub,2013-02-18 05:59:00,
2013-02-18 01:02:00,39.6,32.9,30.38,NE,45,0.0,0.0,77,0.00,,,0.00,meteohub,2013-02-18 06:02:00,
2013-02-18 01:03:00,39.6,32.9,30.38,NE,45,0.0,0.0,77,0.00,,,0.00,meteohub,2013-02-18 06:03:00,
2013-02-18 01:04:00,39.6,32.9,30.39,NE,45,0.0,0.0,77,0.00,,,0.00,meteohub,2013-02-18 06:04:00,
2013-02-18 01:08:00,39.6,32.9,30.39,NE,45,0.0,0.0,77,0.00,,,0.00,meteohub,2013-02-18 06:08:00,
2013-02-18 01:09:00,39.6,32.9,30.38,NE,45,0.0,0.0,77,0.00,,,0.00,meteohub,2013-02-18 06:09:00,
2013-02-18 01:10:00,39.6,32.9,30.39,NE,45,1.0,0.0,77,0.00,,,0.00,meteohub,2013-02-18 06:10:00,
2013-02-18 01:11:00,39.6,33.3,30.39,NE,45,0.0,0.0,78,0.00,,,0.00,meteohub,2013-02-18 06:11:00,
2013-02-18 01:13:00,39.4,33.1,30.38,NE,45,0.0,0.0,78,0.00,,,0.00,meteohub,2013-02-18 06:13:00,
2013-02-18 01:16:00,39.4,33.1,30.38,NE,45,0.0,1.0,78,0.00,,,0.00,meteohub,2013-02-18 06:16:00,
2013-02-18 01:17:00,39.4,33.1,30.39,NE,45,0.0,1.0,78,0.00,,,0.00,meteohub,2013-02-18 06:17:00,
2013-02-18 01:20:00,39.4,33.1,30.38,NE,45,0.0,1.0,78,0.00,,,0.00,meteohub,2013-02-18 06:20:00,
2013-02-18 01:22:00,39.4,33.4,30.39,NE,45,0.0,1.0,79,0.00,,,0.00,meteohub,2013-02-18 06:22:00,
2013-02-18 01:23:00,39.2,33.3,30.39,NE,45,0.0,1.0,79,0.00,,,0.00,meteohub,2013-02-18 06:23:00,
2013-02-18 01:25:00,39.2,33.3,30.38,NE,45,0.0,1.0,79,0.00,,,0.00,meteohub,2013-02-18 06:25:00,
2013-02-18 01:27:00,39.2,33.3,30.38,NE,45,1.0,1.0,79,0.00,,,0.00,meteohub,2013-02-18 06:27:00,
2013-02-18 01:28:00,39.2,33.3,30.38,NE,45,0.0,1.0,79,0.00,,,0.00,meteohub,2013-02-18 06:28:00,
2013-02-18 01:33:00,39.2,33.6,30.38,NE,45,0.0,1.0,80,0.00,,,0.00,meteohub,2013-02-18 06:33:00,
2013-02-18 01:34:00,39.2,33.6,30.38,NE,45,0.0,1.0,80,0.00,,,0.00,meteohub,2013-02-18 06:34:00,
2013-02-18 01:35:00,39.2,33.6,30.38,NE,45,0.0,1.0,80,0.00,,,0.00,meteohub,2013-02-18 06:35:00,
2013-02-18 01:36:00,39.2,33.6,30.38,NE,45,0.0,1.0,80,0.00,,,0.00,meteohub,2013-02-18 06:36:00,
2013-02-18 01:39:00,39.2,33.6,30.38,NE,45,0.0,1.0,80,0.00,,,0.00,meteohub,2013-02-18 06:39:00,
2013-02-18 01:42:00,39.2,33.8,30.38,NE,45,1.0,1.0,81,0.00,,,0.00,meteohub,2013-02-18 06:42:00,
2013-02-18 01:43:00,39.4,34.0,30.38,NE,45,1.0,1.0,81,0.00,,,0.00,meteohub,2013-02-18 06:43:00,
2013-02-18 01:45:00,39.4,34.0,30.38,NE,45,1.0,1.0,81,0.00,,,0.00,meteohub,2013-02-18 06:45:00,
2013-02-18 01:46:00,39.4,34.3,30.38,NE,45,0.0,1.0,82,0.00,,,0.00,meteohub,2013-02-18 06:46:00,
2013-02-18 01:47:00,39.6,34.5,30.38,NE,45,2.0,2.0,82,0.00,,,0.00,meteohub,2013-02-18 06:47:00,
2013-02-18 01:50:00,39.6,34.9,30.38,NE,45,1.0,2.0,83,0.00,,,0.00,meteohub,2013-02-18 06:50:00,
2013-02-18 01:51:00,39.6,34.9,30.38,NE,45,1.0,2.0,83,0.00,,,0.00,meteohub,2013-02-18 06:51:00,
2013-02-18 01:55:00,39.9,35.4,30.38,NE,45,1.0,2.0,84,0.00,,,0.00,meteohub,2013-02-18 06:55:00,
2013-02-18 01:57:00,39.9,35.4,30.38,NE,45,0.0,2.0,84,0.00,,,0.00,meteohub,2013-02-18 06:57:00,
2013-02-18 01:58:00,39.9,35.4,30.38,NE,45,1.0,2.0,84,0.00,,,0.00,meteohub,2013-02-18 06:58:00,
2013-02-18 02:02:00,40.1,35.6,30.38,NE,45,1.0,2.0,84,0.00,,,0.00,meteohub,2013-02-18 07:02:00,
2013-02-18 02:03:00,40.3,35.8,30.38,NE,45,2.0,2.0,84,0.00,,,0.00,meteohub,2013-02-18 07:03:00,
2013-02-18 02:04:00,40.3,35.8,30.38,NE,45,1.0,2.0,84,0.00,,,0.00,meteohub,2013-02-18 07:04:00,
2013-02-18 02:08:00,40.6,36.0,30.38,NE,45,2.0,2.0,83,0.00,,,0.00,meteohub,2013-02-18 07:08:00,
2013-02-18 02:09:00,40.6,36.0,30.38,NE,45,1.0,2.0,83,0.00,,,0.00,meteohub,2013-02-18 07:09:00,
2013-02-18 02:10:00,40.6,36.0,30.38,NE,45,2.0,2.0,83,0.00,,,0.00,meteohub,2013-02-18 07:10:00,
2013-02-18 02:14:00,40.8,35.8,30.38,North,0,1.0,2.0,82,0.00,,,0.00,meteohub,2013-02-18 07:14:00,
2013-02-18 02:15:00,41.0,35.6,30.37,NE,45,1.0,2.0,81,0.00,,,0.00,meteohub,2013-02-18 07:15:00,
2013-02-18 02:16:00,41.0,35.6,30.37,North,0,1.0,2.0,81,0.00,,,0.00,meteohub,2013-02-18 07:16:00,
2013-02-18 02:17:00,41.0,35.6,30.37,NE,45,1.0,2.0,81,0.00,,,0.00,meteohub,2013-02-18 07:17:00,
2013-02-18 02:19:00,40.8,35.4,30.37,NE,45,1.0,2.0,81,0.00,,,0.00,meteohub,2013-02-18 07:19:00,
2013-02-18 02:20:00,41.0,35.2,30.37,NE,45,1.0,2.0,80,0.00,,,0.00,meteohub,2013-02-18 07:20:00,
2013-02-18 02:21:00,41.0,35.2,30.37,NE,45,1.0,2.0,80,0.00,,,0.00,meteohub,2013-02-18 07:21:00,
2013-02-18 02:22:00,41.0,35.2,30.37,NE,45,1.0,2.0,80,0.00,,,0.00,meteohub,2013-02-18 07:22:00,
2013-02-18 02:24:00,41.0,35.2,30.37,NE,45,1.0,2.0,80,0.00,,,0.00,meteohub,2013-02-18 07:24:00,
2013-02-18 02:26:00,41.0,35.2,30.38,NE,45,1.0,2.0,80,0.00,,,0.00,meteohub,2013-02-18 07:26:00,
2013-02-18 02:27:00,41.0,35.2,30.38,NE,45,1.0,2.0,80,0.00,,,0.00,meteohub,2013-02-18 07:27:00,
2013-02-18 02:29:00,41.0,35.2,30.37,NE,45,1.0,2.0,80,0.00,,,0.00,meteohub,2013-02-18 07:29:00,
2013-02-18 02:32:00,41.0,35.1,30.37,NE,45,0.0,2.0,79,0.00,,,0.00,meteohub,2013-02-18 07:32:00,
2013-02-18 02:36:00,41.2,35.2,30.37,NE,45,1.0,2.0,79,0.00,,,0.00,meteohub,2013-02-18 07:36:00,
2013-02-18 02:37:00,41.2,35.2,30.37,North,0,1.0,2.0,79,0.00,,,0.00,meteohub,2013-02-18 07:37:00,
2013-02-18 02:38:00,41.2,35.2,30.37,NE,45,2.0,2.0,79,0.00,,,0.00,meteohub,2013-02-18 07:38:00,
2013-02-18 02:39:00,41.2,35.2,30.37,NE,45,1.0,2.0,79,0.00,,,0.00,meteohub,2013-02-18 07:39:00,
2013-02-18 02:41:00,41.2,35.2,30.37,NE,45,1.0,2.0,79,0.00,,,0.00,meteohub,2013-02-18 07:41:00,
2013-02-18 02:42:00,41.2,35.2,30.37,NE,45,1.0,2.0,79,0.00,,,0.00,meteohub,2013-02-18 07:42:00,
2013-02-18 02:44:00,41.2,35.2,30.37,NE,45,1.0,2.0,79,0.00,,,0.00,meteohub,2013-02-18 07:44:00,
2013-02-18 02:45:00,41.2,35.2,30.37,NE,45,1.0,2.0,79,0.00,,,0.00,meteohub,2013-02-18 07:45:00,
2013-02-18 02:46:00,41.2,35.2,30.38,NE,45,1.0,2.0,79,0.00,,,0.00,meteohub,2013-02-18 07:46:00,
2013-02-18 02:47:00,41.2,35.2,30.38,NE,45,0.0,2.0,79,0.00,,,0.00,meteohub,2013-02-18 07:47:00,
2013-02-18 02:49:00,41.2,35.2,30.37,NE,45,1.0,2.0,79,0.00,,,0.00,meteohub,2013-02-18 07:49:00,
2013-02-18 02:50:00,41.2,35.2,30.37,NE,45,1.0,2.0,79,0.00,,,0.00,meteohub,2013-02-18 07:50:00,
2013-02-18 02:52:00,41.2,35.2,30.37,NE,45,0.0,2.0,79,0.00,,,0.00,meteohub,2013-02-18 07:52:00,
2013-02-18 02:54:00,41.2,35.2,30.37,NE,45,0.0,2.0,79,0.00,,,0.00,meteohub,2013-02-18 07:54:00,
2013-02-18 02:55:00,41.2,35.2,30.37,NE,45,0.0,2.0,79,0.00,,,0.00,meteohub,2013-02-18 07:55:00,
2013-02-18 02:57:00,41.2,35.2,30.38,NW,315,0.0,1.0,79,0.00,,,0.00,meteohub,2013-02-18 07:57:00,
2013-02-18 02:59:00,41.0,34.7,30.38,NE,45,1.0,1.0,78,0.00,,,0.00,meteohub,2013-02-18 07:59:00,
2013-02-18 03:00:00,41.0,34.7,30.38,NE,45,0.0,1.0,78,0.00,,,0.00,meteohub,2013-02-18 08:00:00,
2013-02-18 03:02:00,41.0,34.7,30.37,NE,45,0.0,1.0,78,0.00,,,0.00,meteohub,2013-02-18 08:02:00,
2013-02-18 03:05:00,40.8,34.9,30.37,NE,45,0.0,1.0,79,0.00,,,0.00,meteohub,2013-02-18 08:05:00,
2013-02-18 03:06:00,40.8,34.9,30.37,NE,45,0.0,1.0,79,0.00,,,0.00,meteohub,2013-02-18 08:06:00,
2013-02-18 03:07:00,40.8,34.9,30.37,NE,45,0.0,1.0,79,0.00,,,0.00,meteohub,2013-02-18 08:07:00,
2013-02-18 03:11:00,40.8,34.9,30.37,NE,45,1.0,1.0,79,0.00,,,0.00,meteohub,2013-02-18 08:11:00,
2013-02-18 03:12:00,40.8,34.9,30.37,NE,45,1.0,1.0,79,0.00,,,0.00,meteohub,2013-02-18 08:12:00,
2013-02-18 03:13:00,40.8,34.9,30.37,NE,45,1.0,1.0,79,0.00,,,0.00,meteohub,2013-02-18 08:13:00,
2013-02-18 03:17:00,41.0,34.7,30.37,NE,45,1.0,1.0,78,0.00,,,0.00,meteohub,2013-02-18 08:17:00,
2013-02-18 03:18:00,40.8,34.9,30.37,NE,45,0.0,1.0,79,0.00,,,0.00,meteohub,2013-02-18 08:18:00,
2013-02-18 03:20:00,40.8,34.9,30.37,NE,45,0.0,1.0,79,0.00,,,0.00,meteohub,2013-02-18 08:20:00,
2013-02-18 03:22:00,40.8,34.9,30.37,NE,45,0.0,1.0,79,0.00,,,0.00,meteohub,2013-02-18 08:22:00,
2013-02-18 03:24:00,40.8,34.9,30.37,NE,45,0.0,1.0,79,0.00,,,0.00,meteohub,2013-02-18 08:24:00,
2013-02-18 03:25:00,40.8,34.9,30.37,NE,45,0.0,1.0,79,0.00,,,0.00,meteohub,2013-02-18 08:25:00,
2013-02-18 03:27:00,40.8,34.5,30.37,NE,45,1.0,1.0,78,0.00,,,0.00,meteohub,2013-02-18 08:27:00,
2013-02-18 03:30:00,40.8,34.5,30.37,NE,45,1.0,1.0,78,0.00,,,0.00,meteohub,2013-02-18 08:30:00,
2013-02-18 03:32:00,40.8,34.5,30.37,NE,45,0.0,1.0,78,0.00,,,0.00,meteohub,2013-02-18 08:32:00,
2013-02-18 03:33:00,40.8,34.5,30.37,East,90,1.0,1.0,78,0.00,,,0.00,meteohub,2013-02-18 08:33:00,
2013-02-18 03:35:00,40.8,34.9,30.36,East,90,1.0,1.0,79,0.00,,,0.00,meteohub,2013-02-18 08:35:00,
2013-02-18 03:37:00,40.8,34.9,30.37,NE,45,1.0,1.0,79,0.00,,,0.00,meteohub,2013-02-18 08:37:00,
2013-02-18 03:38:00,40.8,34.9,30.36,NE,45,1.0,1.0,79,0.00,,,0.00,meteohub,2013-02-18 08:38:00,
2013-02-18 03:39:00,40.8,34.9,30.37,NE,45,1.0,1.0,79,0.00,,,0.00,meteohub,2013-02-18 08:39:00,
2013-02-18 03:42:00,40.8,34.9,30.36,NE,45,0.0,1.0,79,0.00,,,0.00,meteohub,2013-02-18 08:42:00,
2013-02-18 03:43:00,41.0,34.7,30.37,East,90,1.0,1.0,78,0.00,,,0.00,meteohub,2013-02-18 08:43:00,
2013-02-18 03:44:00,41.0,34.7,30.37,East,90,1.0,1.0,78,0.00,,,0.00,meteohub,2013-02-18 08:44:00,
2013-02-18 03:47:00,41.0,34.7,30.36,East,90,1.0,1.0,78,0.00,,,0.00,meteohub,2013-02-18 08:47:00,
2013-02-18 03:52:00,41.2,34.9,30.36,NE,45,1.0,1.0,78,0.00,,,0.00,meteohub,2013-02-18 08:52:00,
2013-02-18 03:53:00,41.4,35.1,30.36,East,90,1.0,1.0,78,0.00,,,0.00,meteohub,2013-02-18 08:53:00,
2013-02-18 03:57:00,41.4,35.1,30.36,East,90,1.0,2.0,78,0.00,,,0.00,meteohub,2013-02-18 08:57:00,
2013-02-18 03:58:00,41.4,35.1,30.37,NE,45,1.0,2.0,78,0.00,,,0.00,meteohub,2013-02-18 08:58:00,
2013-02-18 04:00:00,41.4,35.1,30.37,NE,45,0.0,2.0,78,0.00,,,0.00,meteohub,2013-02-18 09:00:00,
2013-02-18 04:02:00,41.2,34.5,30.37,NE,45,0.0,2.0,77,0.00,,,0.00,meteohub,2013-02-18 09:02:00,
2013-02-18 04:03:00,41.2,34.5,30.36,NE,45,0.0,2.0,77,0.00,,,0.00,meteohub,2013-02-18 09:03:00,
2013-02-18 04:04:00,41.2,34.5,30.36,NE,45,1.0,2.0,77,0.00,,,0.00,meteohub,2013-02-18 09:04:00,
2013-02-18 04:07:00,41.2,34.5,30.37,NE,45,0.0,2.0,77,0.00,,,0.00,meteohub,2013-02-18 09:07:00,
2013-02-18 04:08:00,41.2,34.5,30.37,East,90,0.0,2.0,77,0.00,,,0.00,meteohub,2013-02-18 09:08:00,
2013-02-18 04:09:00,41.2,34.5,30.36,NE,45,1.0,2.0,77,0.00,,,0.00,meteohub,2013-02-18 09:09:00,
2013-02-18 04:12:00,41.0,34.3,30.36,NE,45,0.0,1.0,77,0.00,,,0.00,meteohub,2013-02-18 09:12:00,
2013-02-18 04:13:00,41.0,34.3,30.36,NE,45,1.0,1.0,77,0.00,,,0.00,meteohub,2013-02-18 09:13:00,
2013-02-18 04:14:00,41.0,34.3,30.36,NE,45,1.0,1.0,77,0.00,,,0.00,meteohub,2013-02-18 09:14:00,
2013-02-18 04:15:00,41.0,34.3,30.36,NE,45,1.0,1.0,77,0.00,,,0.00,meteohub,2013-02-18 09:15:00,
2013-02-18 04:17:00,41.0,34.3,30.36,NE,45,0.0,1.0,77,0.00,,,0.00,meteohub,2013-02-18 09:17:00,
2013-02-18 04:19:00,41.0,34.3,30.36,NE,45,0.0,1.0,77,0.00,,,0.00,meteohub,2013-02-18 09:19:00,
2013-02-18 04:20:00,41.0,34.3,30.36,NE,45,1.0,1.0,77,0.00,,,0.00,meteohub,2013-02-18 09:20:00,
2013-02-18 04:24:00,40.8,34.9,30.36,NE,45,1.0,1.0,79,0.00,,,0.00,meteohub,2013-02-18 09:24:00,
2013-02-18 04:25:00,40.8,34.9,30.36,NE,45,0.0,1.0,79,0.00,,,0.00,meteohub,2013-02-18 09:25:00,
2013-02-18 04:27:00,41.0,34.7,30.36,NE,45,1.0,1.0,78,0.00,,,0.00,meteohub,2013-02-18 09:27:00,
2013-02-18 04:29:00,41.0,34.7,30.36,NE,45,1.0,1.0,78,0.00,,,0.00,meteohub,2013-02-18 09:29:00,
2013-02-18 04:30:00,41.0,34.7,30.36,SE,135,1.0,1.0,78,0.00,,,0.00,meteohub,2013-02-18 09:30:00,
2013-02-18 04:32:00,41.0,34.7,30.36,NE,45,1.0,1.0,78,0.00,,,0.00,meteohub,2013-02-18 09:32:00,
2013-02-18 04:34:00,41.2,34.5,30.36,East,90,0.0,1.0,77,0.00,,,0.00,meteohub,2013-02-18 09:34:00,
2013-02-18 04:35:00,41.2,34.5,30.36,East,90,2.0,2.0,77,0.00,,,0.00,meteohub,2013-02-18 09:35:00,
2013-02-18 04:37:00,41.2,34.5,30.36,NE,45,0.0,1.0,77,0.00,,,0.00,meteohub,2013-02-18 09:37:00,
2013-02-18 04:41:00,41.2,34.5,30.36,East,90,1.0,2.0,77,0.00,,,0.00,meteohub,2013-02-18 09:41:00,
2013-02-18 04:42:00,41.2,34.5,30.36,East,90,2.0,2.0,77,0.00,,,0.00,meteohub,2013-02-18 09:42:00,
2013-02-18 04:46:00,41.2,34.2,30.36,NE,45,0.0,2.0,76,0.00,,,0.00,meteohub,2013-02-18 09:46:00,
2013-02-18 04:48:00,41.2,34.2,30.36,NE,45,0.0,2.0,76,0.00,,,0.00,meteohub,2013-02-18 09:48:00,
2013-02-18 04:49:00,41.2,34.2,30.36,NE,45,1.0,2.0,76,0.00,,,0.00,meteohub,2013-02-18 09:49:00,
2013-02-18 04:52:00,41.2,34.2,30.35,NE,45,1.0,2.0,76,0.00,,,0.00,meteohub,2013-02-18 09:52:00,
2013-02-18 04:53:00,41.0,34.0,30.35,East,90,0.0,2.0,76,0.00,,,0.00,meteohub,2013-02-18 09:53:00,
2013-02-18 04:54:00,41.0,34.0,30.35,East,90,0.0,2.0,76,0.00,,,0.00,meteohub,2013-02-18 09:54:00,
2013-02-18 04:56:00,41.0,34.0,30.36,East,90,1.0,2.0,76,0.00,,,0.00,meteohub,2013-02-18 09:56:00,
2013-02-18 04:58:00,41.0,33.6,30.36,NE,45,1.0,2.0,75,0.00,,,0.00,meteohub,2013-02-18 09:58:00,
2013-02-18 04:59:00,40.8,33.8,30.36,NE,45,0.0,2.0,76,0.00,,,0.00,meteohub,2013-02-18 09:59:00,
2013-02-18 05:00:00,40.8,33.8,30.36,NE,45,1.0,2.0,76,0.00,,,0.00,meteohub,2013-02-18 10:00:00,
2013-02-18 05:05:00,40.8,33.8,30.36,NE,45,0.0,1.0,76,0.00,,,0.00,meteohub,2013-02-18 10:05:00,
2013-02-18 05:06:00,40.8,33.8,30.36,NE,45,0.0,1.0,76,0.00,,,0.00,meteohub,2013-02-18 10:06:00,
2013-02-18 05:11:00,40.8,33.8,30.35,NE,45,1.0,1.0,76,0.00,,,0.00,meteohub,2013-02-18 10:11:00,
2013-02-18 05:12:00,40.8,33.8,30.35,East,90,1.0,1.0,76,0.00,,,0.00,meteohub,2013-02-18 10:12:00,
2013-02-18 05:13:00,40.8,33.8,30.35,East,90,1.0,1.0,76,0.00,,,0.00,meteohub,2013-02-18 10:13:00,
2013-02-18 05:16:00,40.8,33.8,30.36,NE,45,1.0,1.0,76,0.00,,,0.00,meteohub,2013-02-18 10:16:00,
2013-02-18 05:18:00,40.8,33.8,30.36,NE,45,0.0,1.0,76,0.00,,,0.00,meteohub,2013-02-18 10:18:00,
2013-02-18 05:19:00,40.8,33.8,30.36,NE,45,1.0,1.0,76,0.00,,,0.00,meteohub,2013-02-18 10:19:00,
2013-02-18 05:22:00,40.8,33.8,30.36,NE,45,0.0,1.0,76,0.00,,,0.00,meteohub,2013-02-18 10:22:00,
2013-02-18 05:25:00,40.8,33.8,30.36,East,90,1.0,1.0,76,0.00,,,0.00,meteohub,2013-02-18 10:25:00,
2013-02-18 05:27:00,40.8,33.8,30.36,North,0,0.0,1.0,76,0.00,,,0.00,meteohub,2013-02-18 10:27:00,
2013-02-18 05:28:00,40.8,33.8,30.36,North,0,0.0,1.0,76,0.00,,,0.00,meteohub,2013-02-18 10:28:00,
2013-02-18 05:30:00,40.8,33.8,30.37,East,90,0.0,1.0,76,0.00,,,0.00,meteohub,2013-02-18 10:30:00,
2013-02-18 05:33:00,40.8,33.8,30.36,NE,45,1.0,1.0,76,0.00,,,0.00,meteohub,2013-02-18 10:33:00,
2013-02-18 05:34:00,40.8,33.8,30.36,NE,45,1.0,1.0,76,0.00,,,0.00,meteohub,2013-02-18 10:34:00,
2013-02-18 05:38:00,40.8,33.8,30.37,NE,45,0.0,1.0,76,0.00,,,0.00,meteohub,2013-02-18 10:38:00,
2013-02-18 05:39:00,40.8,33.8,30.37,NE,45,0.0,1.0,76,0.00,,,0.00,meteohub,2013-02-18 10:39:00,
2013-02-18 05:41:00,40.8,33.8,30.37,NE,45,0.0,2.0,76,0.00,,,0.00,meteohub,2013-02-18 10:41:00,
2013-02-18 05:45:00,40.6,33.6,30.37,East,90,0.0,2.0,76,0.00,,,0.00,meteohub,2013-02-18 10:45:00,
2013-02-18 05:46:00,40.6,33.6,30.37,East,90,0.0,2.0,76,0.00,,,0.00,meteohub,2013-02-18 10:46:00,
2013-02-18 05:47:00,40.6,33.6,30.37,East,90,0.0,2.0,76,0.00,,,0.00,meteohub,2013-02-18 10:47:00,
2013-02-18 05:50:00,40.5,33.4,30.37,East,90,1.0,2.0,76,0.00,,,0.00,meteohub,2013-02-18 10:50:00,
2013-02-18 05:51:00,40.5,33.4,30.38,East,90,0.0,2.0,76,0.00,,,0.00,meteohub,2013-02-18 10:51:00,
2013-02-18 05:55:00,40.3,33.3,30.38,East,90,0.0,2.0,76,0.00,,,0.00,meteohub,2013-02-18 10:55:00,
2013-02-18 05:56:00,40.3,33.3,30.37,East,90,0.0,1.0,76,0.00,,,0.00,meteohub,2013-02-18 10:56:00,
2013-02-18 05:57:00,40.3,33.3,30.37,East,90,0.0,1.0,76,0.00,,,0.00,meteohub,2013-02-18 10:57:00,
2013-02-18 06:00:00,40.3,33.3,30.37,NE,45,1.0,1.0,76,0.00,,,0.00,meteohub,2013-02-18 11:00:00,
2013-02-18 06:02:00,40.1,33.1,30.37,NE,45,0.0,1.0,76,0.00,,,0.00,meteohub,2013-02-18 11:02:00,
2013-02-18 06:04:00,40.1,33.1,30.37,NE,45,0.0,1.0,76,0.00,,,0.00,meteohub,2013-02-18 11:04:00,
2013-02-18 06:06:00,40.1,33.1,30.37,NE,45,0.0,1.0,76,0.00,,,0.00,meteohub,2013-02-18 11:06:00,
2013-02-18 06:10:00,39.9,32.9,30.37,East,90,0.0,1.0,76,0.00,,,0.00,meteohub,2013-02-18 11:10:00,
2013-02-18 06:11:00,39.9,32.9,30.37,East,90,0.0,1.0,76,0.00,,,0.00,meteohub,2013-02-18 11:11:00,
2013-02-18 06:15:00,39.7,32.7,30.37,North,0,0.0,1.0,76,0.00,,,0.00,meteohub,2013-02-18 11:15:00,
2013-02-18 06:16:00,39.7,32.7,30.37,North,0,0.0,1.0,76,0.00,,,0.00,meteohub,2013-02-18 11:16:00,
2013-02-18 06:18:00,39.7,32.7,30.37,North,0,0.0,1.0,76,0.00,,,0.00,meteohub,2013-02-18 11:18:00,
2013-02-18 06:20:00,39.7,32.7,30.38,North,0,0.0,1.0,76,0.00,,,0.00,meteohub,2013-02-18 11:20:00,
2013-02-18 06:22:00,39.6,32.5,30.37,North,0,0.0,1.0,76,0.00,,,0.00,meteohub,2013-02-18 11:22:00,
2013-02-18 06:23:00,39.6,32.9,30.37,NE,45,1.0,1.0,77,0.00,,,0.00,meteohub,2013-02-18 11:23:00,
2013-02-18 06:26:00,39.6,32.9,30.38,NE,45,0.0,1.0,77,0.00,,,0.00,meteohub,2013-02-18 11:26:00,
2013-02-18 06:28:00,39.6,32.9,30.37,NE,45,0.0,1.0,77,0.00,,,0.00,meteohub,2013-02-18 11:28:00,
2013-02-18 06:29:00,39.6,32.9,30.38,NE,45,0.0,1.0,77,0.00,,,0.00,meteohub,2013-02-18 11:29:00,
2013-02-18 06:32:00,39.6,32.9,30.38,NE,45,0.0,1.0,77,0.00,,,0.00,meteohub,2013-02-18 11:32:00,
2013-02-18 06:34:00,39.6,32.9,30.38,NE,45,1.0,1.0,77,0.00,,,0.00,meteohub,2013-02-18 11:34:00,
2013-02-18 06:35:00,39.6,32.9,30.37,NE,45,0.0,1.0,77,0.00,,,0.00,meteohub,2013-02-18 11:35:00,
2013-02-18 06:38:00,39.4,32.7,30.37,NE,45,0.0,1.0,77,0.00,,,0.00,meteohub,2013-02-18 11:38:00,
2013-02-18 06:39:00,39.4,32.7,30.37,NE,45,0.0,1.0,77,0.00,,,0.00,meteohub,2013-02-18 11:39:00,
2013-02-18 06:40:00,39.4,32.7,30.37,NE,45,0.0,1.0,77,0.00,,,0.00,meteohub,2013-02-18 11:40:00,
2013-02-18 06:44:00,39.2,32.5,30.38,NE,45,0.0,1.0,77,0.00,,,0.00,meteohub,2013-02-18 11:44:00,
2013-02-18 06:45:00,39.2,32.5,30.38,NE,45,0.0,1.0,77,0.00,,,0.00,meteohub,2013-02-18 11:45:00,
2013-02-18 06:46:00,39.2,32.5,30.37,NE,45,0.0,1.0,77,0.00,,,0.00,meteohub,2013-02-18 11:46:00,
2013-02-18 06:51:00,39.2,32.5,30.38,NE,45,0.0,1.0,77,0.00,,,0.00,meteohub,2013-02-18 11:51:00,
2013-02-18 06:52:00,39.2,32.5,30.37,NE,45,0.0,1.0,77,0.00,,,0.00,meteohub,2013-02-18 11:52:00,
2013-02-18 06:56:00,39.0,33.1,30.38,NE,45,0.0,0.0,79,0.00,,,0.00,meteohub,2013-02-18 11:56:00,
2013-02-18 06:57:00,39.0,33.1,30.38,NE,45,0.0,0.0,79,0.00,,,0.00,meteohub,2013-02-18 11:57:00,
2013-02-18 06:58:00,38.8,32.9,30.38,NE,45,0.0,0.0,79,0.00,,,0.00,meteohub,2013-02-18 11:58:00,
2013-02-18 07:02:00,38.8,32.9,30.38,NE,45,0.0,0.0,79,0.00,,,0.00,meteohub,2013-02-18 12:02:00,
2013-02-18 07:03:00,38.8,32.9,30.38,NE,45,0.0,0.0,79,0.00,,,0.00,meteohub,2013-02-18 12:03:00,
2013-02-18 07:07:00,38.7,33.1,30.38,NE,45,0.0,0.0,80,0.00,,,0.00,meteohub,2013-02-18 12:07:00,
2013-02-18 07:08:00,38.7,33.1,30.38,NE,45,1.0,0.0,80,0.00,,,0.00,meteohub,2013-02-18 12:08:00,
2013-02-18 07:11:00,38.7,33.1,30.38,NE,45,0.0,1.0,80,0.00,,,0.00,meteohub,2013-02-18 12:11:00,
2013-02-18 07:15:00,38.7,33.3,30.38,NE,45,0.0,1.0,81,0.00,,,0.00,meteohub,2013-02-18 12:15:00,
2013-02-18 07:16:00,38.7,33.3,30.38,NE,45,0.0,1.0,81,0.00,,,0.00,meteohub,2013-02-18 12:16:00,
2013-02-18 07:17:00,38.7,33.3,30.38,NE,45,0.0,1.0,81,0.00,,,0.00,meteohub,2013-02-18 12:17:00,
2013-02-18 07:21:00,38.7,33.3,30.38,NE,45,1.0,1.0,81,0.00,,,0.00,meteohub,2013-02-18 12:21:00,
2013-02-18 07:22:00,38.7,33.3,30.38,NE,45,1.0,1.0,81,0.00,,,0.00,meteohub,2013-02-18 12:22:00,
2013-02-18 07:23:00,38.7,33.3,30.37,NE,45,0.0,1.0,81,0.00,,,0.00,meteohub,2013-02-18 12:23:00,
2013-02-18 07:27:00,38.8,33.4,30.38,NE,45,0.0,1.0,81,0.00,,,0.00,meteohub,2013-02-18 12:27:00,
2013-02-18 07:28:00,38.8,33.4,30.38,NE,45,1.0,1.0,81,0.00,,,0.00,meteohub,2013-02-18 12:28:00,
2013-02-18 07:33:00,39.0,34.0,30.38,NE,45,1.0,1.0,82,0.00,,,0.00,meteohub,2013-02-18 12:33:00,
2013-02-18 07:34:00,39.2,33.8,30.38,NE,45,1.0,1.0,81,0.00,,,0.00,meteohub,2013-02-18 12:34:00,
2013-02-18 07:39:00,39.6,34.2,30.38,NE,45,0.0,1.0,81,0.00,,,0.00,meteohub,2013-02-18 12:39:00,
2013-02-18 07:40:00,39.7,34.3,30.38,North,0,1.0,1.0,81,0.00,,,0.00,meteohub,2013-02-18 12:40:00,
2013-02-18 07:44:00,39.9,34.5,30.38,NE,45,1.0,2.0,81,0.00,,,0.00,meteohub,2013-02-18 12:44:00,
2013-02-18 07:45:00,39.9,34.5,30.39,NE,45,1.0,2.0,81,0.00,,,0.00,meteohub,2013-02-18 12:45:00,
2013-02-18 07:50:00,40.8,35.4,30.38,NE,45,1.0,2.0,81,0.00,,,0.00,meteohub,2013-02-18 12:50:00,
2013-02-18 07:51:00,41.0,35.2,30.38,East,90,1.0,2.0,80,0.00,,,0.00,meteohub,2013-02-18 12:51:00,
2013-02-18 07:56:00,41.5,35.6,30.38,NE,45,2.0,2.0,79,0.00,,,0.00,meteohub,2013-02-18 12:56:00,
2013-02-18 07:57:00,41.5,35.6,30.38,NE,45,1.0,2.0,79,0.00,,,0.00,meteohub,2013-02-18 12:57:00,
2013-02-18 08:02:00,42.1,36.0,30.38,NE,45,2.0,2.0,79,0.00,,,0.00,meteohub,2013-02-18 13:02:00,
2013-02-18 08:03:00,42.3,36.0,30.38,North,0,2.0,2.0,78,0.00,,,0.00,meteohub,2013-02-18 13:03:00,
2013-02-18 08:07:00,42.6,36.3,30.38,NE,45,2.0,2.0,78,0.00,,,0.00,meteohub,2013-02-18 13:07:00,
2013-02-18 08:08:00,42.8,35.8,30.39,NE,45,2.0,2.0,76,0.00,,,0.00,meteohub,2013-02-18 13:08:00,
2013-02-18 08:09:00,42.8,35.8,30.38,NE,45,1.0,2.0,76,0.00,,,0.00,meteohub,2013-02-18 13:09:00,
2013-02-18 08:13:00,43.2,36.1,30.38,East,90,2.0,2.0,76,0.00,,,0.00,meteohub,2013-02-18 13:13:00,
2013-02-18 08:15:00,43.5,36.1,30.39,East,90,2.0,2.0,75,0.00,,,0.00,meteohub,2013-02-18 13:15:00,
2013-02-18 08:19:00,44.4,37.0,30.39,North,0,2.0,2.0,75,0.00,,,0.00,meteohub,2013-02-18 13:19:00,
2013-02-18 08:20:00,44.8,36.7,30.39,North,0,2.0,2.0,73,0.00,,,0.00,meteohub,2013-02-18 13:20:00,
2013-02-18 08:21:00,44.8,36.7,30.39,North,0,2.0,2.0,73,0.00,,,0.00,meteohub,2013-02-18 13:21:00,
2013-02-18 08:24:00,45.5,37.0,30.40,NE,45,2.0,2.0,72,0.00,,,0.00,meteohub,2013-02-18 13:24:00,
2013-02-18 08:25:00,45.7,37.2,30.40,East,90,2.0,2.0,72,0.00,,,0.00,meteohub,2013-02-18 13:25:00,
2013-02-18 08:26:00,45.9,37.4,30.39,East,90,2.0,2.0,72,0.00,,,0.00,meteohub,2013-02-18 13:26:00,
2013-02-18 08:31:00,46.8,37.6,30.40,North,0,2.0,2.0,70,0.00,,,0.00,meteohub,2013-02-18 13:31:00,
2013-02-18 08:35:00,47.3,37.2,30.40,NE,45,2.0,2.0,68,0.00,,,0.00,meteohub,2013-02-18 13:35:00,
2013-02-18 08:36:00,47.7,37.6,30.40,East,90,2.0,2.0,68,0.00,,,0.00,meteohub,2013-02-18 13:36:00,
2013-02-18 08:37:00,47.7,37.6,30.40,East,90,2.0,2.0,68,0.00,,,0.00,meteohub,2013-02-18 13:37:00,
2013-02-18 08:40:00,48.2,37.4,30.39,NE,45,2.0,2.0,66,0.00,,,0.00,meteohub,2013-02-18 13:40:00,
2013-02-18 08:42:00,48.4,37.6,30.39,NE,45,2.0,2.0,66,0.00,,,0.00,meteohub,2013-02-18 13:42:00,
2013-02-18 08:47:00,49.1,37.8,30.39,NE,45,2.0,2.0,65,0.00,,,0.00,meteohub,2013-02-18 13:47:00,
2013-02-18 08:48:00,49.3,37.9,30.39,East,90,2.0,2.0,65,0.00,,,0.00,meteohub,2013-02-18 13:48:00,
2013-02-18 08:53:00,50.0,36.3,30.39,NW,315,2.0,4.0,59,0.00,,,0.00,meteohub,2013-02-18 13:53:00,
2013-02-18 08:54:00,50.0,35.8,30.39,East,90,4.0,4.0,58,0.00,,,0.00,meteohub,2013-02-18 13:54:00,
2013-02-18 08:58:00,50.2,33.6,30.39,East,90,2.0,5.0,53,0.00,,,0.00,meteohub,2013-02-18 13:58:00,
2013-02-18 08:59:00,50.4,33.4,30.39,East,90,2.0,5.0,52,0.00,,,0.00,meteohub,2013-02-18 13:59:00,
2013-02-18 09:00:00,50.5,33.1,30.40,East,90,6.0,6.0,51,0.00,,,0.00,meteohub,2013-02-18 14:00:00,
2013-02-18 09:05:00,51.1,31.6,30.40,East,90,3.0,8.0,47,0.00,,,0.00,meteohub,2013-02-18 14:05:00,
2013-02-18 09:06:00,51.1,31.6,30.40,NE,45,3.0,8.0,47,0.00,,,0.00,meteohub,2013-02-18 14:06:00,
2013-02-18 09:07:00,51.3,31.6,30.40,East,90,2.0,8.0,47,0.00,,,0.00,meteohub,2013-02-18 14:07:00,
2013-02-18 09:10:00,51.4,30.2,30.39,East,90,3.0,8.0,44,0.00,,,0.00,meteohub,2013-02-18 14:10:00,
2013-02-18 09:11:00,51.4,29.7,30.39,East,90,3.0,8.0,43,0.00,,,0.00,meteohub,2013-02-18 14:11:00,
2013-02-18 09:12:00,51.6,29.8,30.39,NE,45,3.0,8.0,43,0.00,,,0.00,meteohub,2013-02-18 14:12:00,
2013-02-18 09:16:00,51.8,28.8,30.40,East,90,3.0,4.0,41,0.00,,,0.00,meteohub,2013-02-18 14:16:00,
2013-02-18 09:19:00,52.2,28.6,30.39,East,90,2.0,4.0,40,0.00,,,0.00,meteohub,2013-02-18 14:19:00,
2013-02-18 09:21:00,52.3,27.5,30.39,SE,135,2.0,6.0,38,0.00,,,0.00,meteohub,2013-02-18 14:21:00,
2013-02-18 09:23:00,52.5,27.7,30.39,East,90,2.0,6.0,38,0.00,,,0.00,meteohub,2013-02-18 14:23:00,
2013-02-18 09:25:00,52.7,25.9,30.39,East,90,4.0,6.0,35,0.00,,,0.00,meteohub,2013-02-18 14:25:00,
2013-02-18 09:29:00,53.1,24.8,30.39,NE,45,4.0,6.0,33,0.00,,,0.00,meteohub,2013-02-18 14:29:00,
2013-02-18 09:30:00,53.1,24.8,30.39,East,90,3.0,6.0,33,0.00,,,0.00,meteohub,2013-02-18 14:30:00,
2013-02-18 09:33:00,53.2,24.8,30.39,East,90,4.0,6.0,33,0.00,,,0.00,meteohub,2013-02-18 14:33:00,
2013-02-18 09:35:00,53.4,24.3,30.39,NE,45,3.0,6.0,32,0.00,,,0.00,meteohub,2013-02-18 14:35:00,
2013-02-18 09:36:00,53.4,24.3,30.39,SE,135,6.0,6.0,32,0.00,,,0.00,meteohub,2013-02-18 14:36:00,
2013-02-18 09:38:00,53.6,23.7,30.40,East,90,3.0,4.0,31,0.00,,,0.00,meteohub,2013-02-18 14:38:00,
2013-02-18 09:41:00,53.8,23.9,30.40,North,0,6.0,6.0,31,0.00,,,0.00,meteohub,2013-02-18 14:41:00,
2013-02-18 09:42:00,54.0,24.1,30.39,NE,45,3.0,6.0,31,0.00,,,0.00,meteohub,2013-02-18 14:42:00,
2013-02-18 09:43:00,54.1,25.7,30.39,SE,135,8.0,8.0,33,0.00,,,0.00,meteohub,2013-02-18 14:43:00,
2013-02-18 09:46:00,54.5,25.2,30.39,East,90,3.0,8.0,32,0.00,,,0.00,meteohub,2013-02-18 14:46:00,
2013-02-18 09:48:00,54.5,25.2,30.39,North,0,2.0,8.0,32,0.00,,,0.00,meteohub,2013-02-18 14:48:00,
2013-02-18 09:50:00,54.9,25.5,30.40,NE,45,4.0,8.0,32,0.00,,,0.00,meteohub,2013-02-18 14:50:00,
2013-02-18 09:51:00,55.0,25.7,30.39,SE,135,4.0,8.0,32,0.00,,,0.00,meteohub,2013-02-18 14:51:00,
2013-02-18 09:55:00,55.2,25.9,30.39,East,90,2.0,8.0,32,0.00,,,0.00,meteohub,2013-02-18 14:55:00,
2013-02-18 09:56:00,55.4,28.2,30.39,NE,45,3.0,8.0,35,0.00,,,0.00,meteohub,2013-02-18 14:56:00,
2013-02-18 09:59:00,55.6,27.7,30.39,NE,45,2.0,8.0,34,0.00,,,0.00,meteohub,2013-02-18 14:59:00,
2013-02-18 10:00:00,55.6,27.7,30.40,East,90,3.0,5.0,34,0.00,,,0.00,meteohub,2013-02-18 15:00:00,
2013-02-18 10:01:00,55.8,27.1,30.39,NE,45,2.0,5.0,33,0.00,,,0.00,meteohub,2013-02-18 15:01:00,
2013-02-18 10:04:00,55.8,27.1,30.40,East,90,2.0,5.0,33,0.00,,,0.00,meteohub,2013-02-18 15:04:00,
2013-02-18 10:07:00,55.9,28.0,30.39,East,90,4.0,4.0,34,0.00,,,0.00,meteohub,2013-02-18 15:07:00,
2013-02-18 10:08:00,55.9,27.3,30.40,North,0,2.0,4.0,33,0.00,,,0.00,meteohub,2013-02-18 15:08:00,
2013-02-18 10:11:00,56.1,26.6,30.40,East,90,2.0,7.0,32,0.00,,,0.00,meteohub,2013-02-18 15:11:00,
2013-02-18 10:12:00,56.1,25.9,30.40,NE,45,6.0,7.0,31,0.00,,,0.00,meteohub,2013-02-18 15:12:00,
2013-02-18 10:16:00,56.3,24.4,30.40,NE,45,4.0,7.0,29,0.00,,,0.00,meteohub,2013-02-18 15:16:00,
2013-02-18 10:17:00,56.3,24.4,30.39,NE,45,4.0,7.0,29,0.00,,,0.00,meteohub,2013-02-18 15:17:00,
2013-02-18 10:22:00,56.5,22.8,30.40,NE,45,2.0,7.0,27,0.00,,,0.00,meteohub,2013-02-18 15:22:00,
2013-02-18 10:23:00,56.7,23.0,30.39,SE,135,4.0,7.0,27,0.00,,,0.00,meteohub,2013-02-18 15:23:00,
2013-02-18 10:27:00,57.0,25.0,30.39,West,270,2.0,7.0,29,0.00,,,0.00,meteohub,2013-02-18 15:27:00,
2013-02-18 10:29:00,57.2,23.5,30.39,NE,45,4.0,7.0,27,0.00,,,0.00,meteohub,2013-02-18 15:29:00,
2013-02-18 10:32:00,57.6,23.9,30.39,East,90,5.0,5.0,27,0.00,,,0.00,meteohub,2013-02-18 15:32:00,
2013-02-18 10:35:00,57.7,23.9,30.39,North,0,3.0,5.0,27,0.00,,,0.00,meteohub,2013-02-18 15:35:00,
2013-02-18 10:36:00,57.9,25.0,30.39,East,90,2.0,8.0,28,0.00,,,0.00,meteohub,2013-02-18 15:36:00,
2013-02-18 10:38:00,58.1,25.2,30.39,East,90,4.0,8.0,28,0.00,,,0.00,meteohub,2013-02-18 15:38:00,
2013-02-18 10:41:00,58.5,26.2,30.39,East,90,3.0,8.0,29,0.00,,,0.00,meteohub,2013-02-18 15:41:00,
2013-02-18 10:44:00,58.5,25.5,30.39,South,180,2.0,8.0,28,0.00,,,0.00,meteohub,2013-02-18 15:44:00,
2013-02-18 10:46:00,58.5,26.2,30.39,East,90,4.0,8.0,29,0.00,,,0.00,meteohub,2013-02-18 15:46:00,
2013-02-18 10:47:00,58.6,26.4,30.39,NE,45,3.0,8.0,29,0.00,,,0.00,meteohub,2013-02-18 15:47:00,
2013-02-18 10:50:00,58.8,26.6,30.39,East,90,4.0,4.0,29,0.00,,,0.00,meteohub,2013-02-18 15:50:00,
2013-02-18 10:52:00,58.8,26.6,30.39,North,0,4.0,4.0,29,0.00,,,0.00,meteohub,2013-02-18 15:52:00,
2013-02-18 10:53:00,58.8,26.6,30.39,NE,45,3.0,4.0,29,0.00,,,0.00,meteohub,2013-02-18 15:53:00,
2013-02-18 10:56:00,59.0,26.8,30.39,East,90,3.0,5.0,29,0.00,,,0.00,meteohub,2013-02-18 15:56:00,
2013-02-18 10:57:00,59.2,28.6,30.39,East,90,6.0,6.0,31,0.00,,,0.00,meteohub,2013-02-18 15:57:00,
2013-02-18 11:00:00,59.4,29.5,30.39,East,90,8.0,8.0,32,0.00,,,0.00,meteohub,2013-02-18 16:00:00,
2013-02-18 11:02:00,59.4,28.8,30.39,East,90,3.0,8.0,31,0.00,,,0.00,meteohub,2013-02-18 16:02:00,
2013-02-18 11:03:00,59.4,28.8,30.39,East,90,3.0,8.0,31,0.00,,,0.00,meteohub,2013-02-18 16:03:00,
2013-02-18 11:06:00,59.7,30.6,30.39,NE,45,4.0,8.0,33,0.00,,,0.00,meteohub,2013-02-18 16:06:00,
2013-02-18 11:07:00,59.7,30.6,30.39,NE,45,3.0,8.0,33,0.00,,,0.00,meteohub,2013-02-18 16:07:00,
2013-02-18 11:12:00,60.6,32.2,30.39,SE,135,3.0,8.0,34,0.00,,,0.00,meteohub,2013-02-18 16:12:00,
2013-02-18 11:14:00,60.8,31.5,30.39,SE,135,4.0,8.0,33,0.00,,,0.00,meteohub,2013-02-18 16:14:00,
2013-02-18 11:17:00,60.8,31.5,30.39,NE,45,3.0,8.0,33,0.00,,,0.00,meteohub,2013-02-18 16:17:00,
2013-02-18 11:19:00,61.0,32.4,30.39,East,90,3.0,8.0,34,0.00,,,0.00,meteohub,2013-02-18 16:19:00,
2013-02-18 11:22:00,61.2,32.5,30.39,East,90,3.0,7.0,34,0.00,,,0.00,meteohub,2013-02-18 16:22:00,
2013-02-18 11:23:00,61.2,32.5,30.39,North,0,4.0,7.0,34,0.00,,,0.00,meteohub,2013-02-18 16:23:00,
2013-02-18 11:24:00,61.2,32.5,30.39,North,0,4.0,7.0,34,0.00,,,0.00,meteohub,2013-02-18 16:24:00,
2013-02-18 11:28:00,61.3,32.7,30.39,NE,45,2.0,7.0,34,0.00,,,0.00,meteohub,2013-02-18 16:28:00,
2013-02-18 11:30:00,61.3,32.7,30.39,East,90,3.0,7.0,34,0.00,,,0.00,meteohub,2013-02-18 16:30:00,
2013-02-18 11:34:00,61.3,33.4,30.39,NE,45,6.0,7.0,35,0.00,,,0.00,meteohub,2013-02-18 16:34:00,
2013-02-18 11:35:00,61.3,34.2,30.38,North,0,4.0,7.0,36,0.00,,,0.00,meteohub,2013-02-18 16:35:00,
2013-02-18 11:36:00,61.5,34.3,30.39,SE,135,7.0,7.0,36,0.00,,,0.00,meteohub,2013-02-18 16:36:00,
2013-02-18 11:39:00,61.5,33.6,30.38,NNW,338,4.0,7.0,35,0.00,,,0.00,meteohub,2013-02-18 16:39:00,
2013-02-18 11:41:00,61.5,33.6,30.38,East,90,6.0,7.0,35,0.00,,,0.00,meteohub,2013-02-18 16:41:00,
2013-02-18 11:43:00,61.3,33.4,30.38,NE,45,5.0,7.0,35,0.00,,,0.00,meteohub,2013-02-18 16:43:00,
2013-02-18 11:44:00,61.3,33.4,30.38,NE,45,8.0,8.0,35,0.00,,,0.00,meteohub,2013-02-18 16:44:00,
2013-02-18 11:48:00,61.2,34.0,30.38,NE,45,4.0,7.0,36,0.00,,,0.00,meteohub,2013-02-18 16:48:00,
2013-02-18 11:49:00,61.3,34.9,30.38,East,90,3.0,7.0,37,0.00,,,0.00,meteohub,2013-02-18 16:49:00,
2013-02-18 11:50:00,61.3,34.9,30.38,East,90,2.0,7.0,37,0.00,,,0.00,meteohub,2013-02-18 16:50:00,
2013-02-18 11:54:00,62.1,36.1,30.37,NE,45,2.0,8.0,38,0.00,,,0.00,meteohub,2013-02-18 16:54:00,
2013-02-18 11:56:00,62.4,36.5,30.37,East,90,4.0,8.0,38,0.00,,,0.00,meteohub,2013-02-18 16:56:00,
2013-02-18 12:00:00,62.8,35.4,30.37,SE,135,6.0,8.0,36,0.00,,,0.00,meteohub,2013-02-18 17:00:00,
2013-02-18 12:01:00,62.8,34.7,30.37,SE,135,7.0,7.0,35,0.00,,,0.00,meteohub,2013-02-18 17:01:00,
2013-02-18 12:05:00,62.6,35.2,30.37,East,90,4.0,7.0,36,0.00,,,0.00,meteohub,2013-02-18 17:05:00,
2013-02-18 12:07:00,62.8,35.4,30.37,SE,135,6.0,7.0,36,0.00,,,0.00,meteohub,2013-02-18 17:07:00,
2013-02-18 12:11:00,63.1,37.8,30.37,East,90,7.0,8.0,39,0.00,,,0.00,meteohub,2013-02-18 17:11:00,
2013-02-18 12:12:00,63.3,37.9,30.37,East,90,6.0,8.0,39,0.00,,,0.00,meteohub,2013-02-18 17:12:00,
2013-02-18 12:17:00,63.5,37.4,30.36,SE,135,4.0,8.0,38,0.00,,,0.00,meteohub,2013-02-18 17:17:00,
2013-02-18 12:19:00,63.7,36.9,30.36,NE,45,6.0,8.0,37,0.00,,,0.00,meteohub,2013-02-18 17:19:00,
2013-02-18 12:23:00,63.5,36.7,30.36,NE,45,6.0,8.0,37,0.00,,,0.00,meteohub,2013-02-18 17:23:00,
2013-02-18 12:24:00,63.5,36.7,30.35,NE,45,5.0,8.0,37,0.00,,,0.00,meteohub,2013-02-18 17:24:00,
2013-02-18 12:25:00,63.5,36.7,30.35,NE,45,5.0,8.0,37,0.00,,,0.00,meteohub,2013-02-18 17:25:00,
2013-02-18 12:30:00,63.9,37.0,30.35,East,90,5.0,7.0,37,0.00,,,0.00,meteohub,2013-02-18 17:30:00,
2013-02-18 12:31:00,63.9,37.0,30.35,East,90,3.0,8.0,37,0.00,,,0.00,meteohub,2013-02-18 17:31:00,
2013-02-18 12:36:00,64.4,38.8,30.35,North,0,4.0,8.0,39,0.00,,,0.00,meteohub,2013-02-18 17:36:00,
2013-02-18 12:38:00,64.6,37.8,30.35,East,90,4.0,8.0,37,0.00,,,0.00,meteohub,2013-02-18 17:38:00,
2013-02-18 12:41:00,64.6,38.5,30.35,East,90,4.0,8.0,38,0.00,,,0.00,meteohub,2013-02-18 17:41:00,
2013-02-18 12:42:00,64.6,38.5,30.35,East,90,4.0,8.0,38,0.00,,,0.00,meteohub,2013-02-18 17:42:00,
2013-02-18 12:44:00,64.6,37.8,30.35,SE,135,3.0,8.0,37,0.00,,,0.00,meteohub,2013-02-18 17:44:00,
2013-02-18 12:47:00,64.9,38.1,30.35,East,90,2.0,7.0,37,0.00,,,0.00,meteohub,2013-02-18 17:47:00,
2013-02-18 12:49:00,64.9,38.7,30.35,SE,135,4.0,7.0,38,0.00,,,0.00,meteohub,2013-02-18 17:49:00,
2013-02-18 12:51:00,65.1,38.8,30.34,WSW,248,5.0,8.0,38,0.00,,,0.00,meteohub,2013-02-18 17:51:00,
2013-02-18 12:53:00,65.1,38.1,30.34,East,90,4.0,8.0,37,0.00,,,0.00,meteohub,2013-02-18 17:53:00,
2013-02-18 12:54:00,65.1,38.1,30.34,SE,135,7.0,8.0,37,0.00,,,0.00,meteohub,2013-02-18 17:54:00,
2013-02-18 12:58:00,65.3,39.7,30.34,SE,135,3.0,8.0,39,0.00,,,0.00,meteohub,2013-02-18 17:58:00,
2013-02-18 12:59:00,65.5,39.9,30.34,East,90,2.0,8.0,39,0.00,,,0.00,meteohub,2013-02-18 17:59:00,
2013-02-18 13:01:00,65.8,40.8,30.34,SE,135,5.0,9.0,40,0.00,,,0.00,meteohub,2013-02-18 18:01:00,
2013-02-18 13:05:00,66.2,39.2,30.34,SE,135,8.0,9.0,37,0.00,,,0.00,meteohub,2013-02-18 18:05:00,
2013-02-18 13:06:00,66.2,39.2,30.33,East,90,8.0,9.0,37,0.00,,,0.00,meteohub,2013-02-18 18:06:00,
2013-02-18 13:07:00,66.0,39.0,30.33,NE,45,6.0,9.0,37,0.00,,,0.00,meteohub,2013-02-18 18:07:00,
2013-02-18 13:10:00,65.8,39.6,30.33,NE,45,4.0,9.0,38,0.00,,,0.00,meteohub,2013-02-18 18:10:00,
2013-02-18 13:11:00,66.0,40.3,30.33,NE,45,4.0,9.0,39,0.00,,,0.00,meteohub,2013-02-18 18:11:00,
2013-02-18 13:12:00,66.0,40.3,30.33,NW,315,10.0,10.0,39,0.00,,,0.00,meteohub,2013-02-18 18:12:00,
2013-02-18 13:16:00,65.8,39.6,30.33,SE,135,4.0,10.0,38,0.00,,,0.00,meteohub,2013-02-18 18:16:00,
2013-02-18 13:17:00,65.8,39.6,30.32,SE,135,7.0,10.0,38,0.00,,,0.00,meteohub,2013-02-18 18:17:00,
2013-02-18 13:21:00,66.0,41.0,30.32,South,180,6.0,10.0,40,0.00,,,0.00,meteohub,2013-02-18 18:21:00,
2013-02-18 13:23:00,66.4,40.6,30.32,East,90,5.0,10.0,39,0.00,,,0.00,meteohub,2013-02-18 18:23:00,
2013-02-18 13:26:00,66.7,41.0,30.32,East,90,5.0,10.0,39,0.00,,,0.00,meteohub,2013-02-18 18:26:00,
2013-02-18 13:28:00,66.7,40.3,30.32,NE,45,4.0,10.0,38,0.00,,,0.00,meteohub,2013-02-18 18:28:00,
2013-02-18 13:29:00,66.7,40.3,30.32,NE,45,4.0,10.0,38,0.00,,,0.00,meteohub,2013-02-18 18:29:00,
2013-02-18 13:34:00,66.9,40.5,30.32,SE,135,7.0,8.0,38,0.00,,,0.00,meteohub,2013-02-18 18:34:00,
2013-02-18 13:35:00,66.7,40.3,30.31,East,90,8.0,8.0,38,0.00,,,0.00,meteohub,2013-02-18 18:35:00,
2013-02-18 13:40:00,66.7,41.0,30.31,SE,135,3.0,7.0,39,0.00,,,0.00,meteohub,2013-02-18 18:40:00,
2013-02-18 13:41:00,66.7,41.0,30.31,NE,45,3.0,8.0,39,0.00,,,0.00,meteohub,2013-02-18 18:41:00,
2013-02-18 13:42:00,66.7,41.0,30.31,SE,135,5.0,8.0,39,0.00,,,0.00,meteohub,2013-02-18 18:42:00,
2013-02-18 13:45:00,67.3,41.5,30.31,East,90,5.0,8.0,39,0.00,,,0.00,meteohub,2013-02-18 18:45:00,
2013-02-18 13:47:00,67.3,41.5,30.31,NW,315,3.0,8.0,39,0.00,,,0.00,meteohub,2013-02-18 18:47:00,
2013-02-18 13:48:00,67.5,41.7,30.31,East,90,3.0,8.0,39,0.00,,,0.00,meteohub,2013-02-18 18:48:00,
2013-02-18 13:51:00,67.8,41.4,30.31,South,180,3.0,8.0,38,0.00,,,0.00,meteohub,2013-02-18 18:51:00,
2013-02-18 13:52:00,67.8,41.4,30.31,NE,45,2.0,8.0,38,0.00,,,0.00,meteohub,2013-02-18 18:52:00,
2013-02-18 13:53:00,68.0,41.4,30.30,South,180,5.0,8.0,38,0.00,,,0.00,meteohub,2013-02-18 18:53:00,
2013-02-18 13:57:00,68.0,41.4,30.31,East,90,2.0,7.0,38,0.00,,,0.00,meteohub,2013-02-18 18:57:00,
2013-02-18 13:59:00,68.2,41.5,30.31,SE,135,7.0,7.0,38,0.00,,,0.00,meteohub,2013-02-18 18:59:00,
2013-02-18 14:01:00,68.4,41.7,30.30,NE,45,4.0,7.0,38,0.00,,,0.00,meteohub,2013-02-18 19:01:00,
2013-02-18 14:03:00,68.5,41.2,30.30,East,90,3.0,7.0,37,0.00,,,0.00,meteohub,2013-02-18 19:03:00,
2013-02-18 14:07:00,68.7,42.1,30.30,East,90,2.0,8.0,38,0.00,,,0.00,meteohub,2013-02-18 19:07:00,
2013-02-18 14:09:00,68.9,42.3,30.30,SE,135,6.0,8.0,38,0.00,,,0.00,meteohub,2013-02-18 19:09:00,
2013-02-18 14:12:00,68.9,41.5,30.29,NE,45,4.0,8.0,37,0.00,,,0.00,meteohub,2013-02-18 19:12:00,
2013-02-18 14:14:00,68.7,41.4,30.30,East,90,7.0,8.0,37,0.00,,,0.00,meteohub,2013-02-18 19:14:00,
2013-02-18 14:17:00,69.1,42.4,30.30,SE,135,3.0,8.0,38,0.00,,,0.00,meteohub,2013-02-18 19:17:00,
2013-02-18 14:19:00,69.3,42.6,30.29,NE,45,7.0,8.0,38,0.00,,,0.00,meteohub,2013-02-18 19:19:00,
2013-02-18 14:23:00,69.6,42.3,30.29,SE,135,4.0,7.0,37,0.00,,,0.00,meteohub,2013-02-18 19:23:00,
2013-02-18 14:24:00,69.6,42.3,30.29,North,0,4.0,7.0,37,0.00,,,0.00,meteohub,2013-02-18 19:24:00,
2013-02-18 14:25:00,69.6,42.3,30.29,East,90,6.0,7.0,37,0.00,,,0.00,meteohub,2013-02-18 19:25:00,
2013-02-18 14:28:00,69.4,42.1,30.29,SE,135,2.0,7.0,37,0.00,,,0.00,meteohub,2013-02-18 19:28:00,
2013-02-18 14:30:00,69.4,42.1,30.29,SE,135,2.0,7.0,37,0.00,,,0.00,meteohub,2013-02-18 19:30:00,
2013-02-18 14:33:00,69.8,41.7,30.29,North,0,2.0,7.0,36,0.00,,,0.00,meteohub,2013-02-18 19:33:00,
2013-02-18 14:35:00,69.8,41.7,30.29,SE,135,4.0,6.0,36,0.00,,,0.00,meteohub,2013-02-18 19:35:00,
2013-02-18 14:36:00,69.8,41.7,30.29,SE,135,4.0,6.0,36,0.00,,,0.00,meteohub,2013-02-18 19:36:00,
2013-02-18 14:41:00,70.3,42.1,30.29,East,90,4.0,6.0,36,0.00,,,0.00,meteohub,2013-02-18 19:41:00,
2013-02-18 14:42:00,70.3,42.1,30.29,East,90,4.0,6.0,36,0.00,,,0.00,meteohub,2013-02-18 19:42:00,
2013-02-18 14:47:00,70.2,41.2,30.28,NE,45,4.0,7.0,35,0.00,,,0.00,meteohub,2013-02-18 19:47:00,
2013-02-18 14:49:00,70.0,41.7,30.28,East,90,5.0,7.0,36,0.00,,,0.00,meteohub,2013-02-18 19:49:00,
2013-02-18 14:52:00,69.8,41.7,30.28,SE,135,7.0,7.0,36,0.00,,,0.00,meteohub,2013-02-18 19:52:00,
2013-02-18 14:53:00,69.8,42.4,30.28,East,90,2.0,7.0,37,0.00,,,0.00,meteohub,2013-02-18 19:53:00,
2013-02-18 14:55:00,70.0,41.7,30.28,North,0,4.0,7.0,36,0.00,,,0.00,meteohub,2013-02-18 19:55:00,
2013-02-18 14:58:00,70.2,42.6,30.28,South,180,10.0,10.0,37,0.00,,,0.00,meteohub,2013-02-18 19:58:00,
2013-02-18 15:00:00,70.2,42.6,30.28,SE,135,2.0,11.0,37,0.00,,,0.00,meteohub,2013-02-18 20:00:00,
2013-02-18 15:01:00,70.3,42.8,30.29,SE,135,4.0,11.0,37,0.00,,,0.00,meteohub,2013-02-18 20:01:00,
2013-02-18 15:04:00,70.3,42.8,30.28,SE,135,3.0,11.0,37,0.00,,,0.00,meteohub,2013-02-18 20:04:00,
2013-02-18 15:05:00,70.3,42.8,30.28,SE,135,3.0,11.0,37,0.00,,,0.00,meteohub,2013-02-18 20:05:00,
2013-02-18 15:07:00,70.5,43.0,30.28,North,0,7.0,11.0,37,0.00,,,0.00,meteohub,2013-02-18 20:07:00,
2013-02-18 15:09:00,70.7,43.2,30.28,South,180,11.0,11.0,37,0.00,,,0.00,meteohub,2013-02-18 20:09:00,
2013-02-18 15:12:00,70.7,43.2,30.28,NW,315,8.0,11.0,37,0.00,,,0.00,meteohub,2013-02-18 20:12:00,
2013-02-18 15:14:00,70.9,43.3,30.28,South,180,6.0,11.0,37,0.00,,,0.00,meteohub,2013-02-18 20:14:00,
2013-02-18 15:17:00,70.9,42.6,30.28,SW,225,7.0,11.0,36,0.00,,,0.00,meteohub,2013-02-18 20:17:00,
2013-02-18 15:19:00,70.7,42.4,30.28,South,180,10.0,11.0,36,0.00,,,0.00,meteohub,2013-02-18 20:19:00,
2013-02-18 15:23:00,70.5,43.0,30.28,SW,225,11.0,11.0,37,0.00,,,0.00,meteohub,2013-02-18 20:23:00,
2013-02-18 15:24:00,70.5,43.0,30.28,SE,135,8.0,11.0,37,0.00,,,0.00,meteohub,2013-02-18 20:24:00,
2013-02-18 15:26:00,70.7,43.2,30.27,SW,225,4.0,11.0,37,0.00,,,0.00,meteohub,2013-02-18 20:26:00,
2013-02-18 15:29:00,70.9,44.1,30.27,SW,225,8.0,11.0,38,0.00,,,0.00,meteohub,2013-02-18 20:29:00,
2013-02-18 15:30:00,70.9,44.1,30.27,South,180,3.0,12.0,38,0.00,,,0.00,meteohub,2013-02-18 20:30:00,
2013-02-18 15:32:00,70.9,44.1,30.27,SW,225,14.0,14.0,38,0.00,,,0.00,meteohub,2013-02-18 20:32:00,
2013-02-18 15:37:00,70.9,44.1,30.27,South,180,4.0,14.0,38,0.00,,,0.00,meteohub,2013-02-18 20:37:00,
2013-02-18 15:38:00,71.1,44.2,30.27,South,180,8.0,14.0,38,0.00,,,0.00,meteohub,2013-02-18 20:38:00,
2013-02-18 15:42:00,71.4,44.4,30.27,SE,135,2.0,14.0,38,0.00,,,0.00,meteohub,2013-02-18 20:42:00,
2013-02-18 15:43:00,71.6,43.9,30.27,East,90,4.0,14.0,37,0.00,,,0.00,meteohub,2013-02-18 20:43:00,
2013-02-18 15:44:00,71.6,43.2,30.28,South,180,2.0,14.0,36,0.00,,,0.00,meteohub,2013-02-18 20:44:00,
2013-02-18 15:48:00,71.4,43.2,30.27,SE,135,5.0,14.0,36,0.00,,,0.00,meteohub,2013-02-18 20:48:00,
2013-02-18 15:49:00,71.4,43.7,30.27,SE,135,4.0,14.0,37,0.00,,,0.00,meteohub,2013-02-18 20:49:00,
2013-02-18 15:53:00,70.7,43.9,30.27,West,270,6.0,11.0,38,0.00,,,0.00,meteohub,2013-02-18 20:53:00,
2013-02-18 15:54:00,70.7,43.9,30.27,South,180,8.0,11.0,38,0.00,,,0.00,meteohub,2013-02-18 20:54:00,
2013-02-18 15:58:00,70.7,43.2,30.27,South,180,11.0,11.0,37,0.00,,,0.00,meteohub,2013-02-18 20:58:00,
2013-02-18 16:00:00,70.7,43.9,30.27,West,270,7.0,11.0,38,0.00,,,0.00,meteohub,2013-02-18 21:00:00,
2013-02-18 16:01:00,70.7,43.9,30.27,SW,225,9.0,14.0,38,0.00,,,0.00,meteohub,2013-02-18 21:01:00,
2013-02-18 16:04:00,70.5,43.7,30.27,SW,225,3.0,14.0,38,0.00,,,0.00,meteohub,2013-02-18 21:04:00,
2013-02-18 16:05:00,70.5,43.7,30.27,South,180,2.0,14.0,38,0.00,,,0.00,meteohub,2013-02-18 21:05:00,
2013-02-18 16:06:00,70.5,43.7,30.27,South,180,8.0,14.0,38,0.00,,,0.00,meteohub,2013-02-18 21:06:00,
2013-02-18 16:09:00,70.7,43.9,30.27,SE,135,4.0,14.0,38,0.00,,,0.00,meteohub,2013-02-18 21:09:00,
2013-02-18 16:10:00,70.7,43.9,30.27,SE,135,4.0,14.0,38,0.00,,,0.00,meteohub,2013-02-18 21:10:00,
2013-02-18 16:12:00,70.9,44.1,30.27,East,90,6.0,14.0,38,0.00,,,0.00,meteohub,2013-02-18 21:12:00,
2013-02-18 16:14:00,70.9,43.3,30.27,WSW,248,9.0,14.0,37,0.00,,,0.00,meteohub,2013-02-18 21:14:00,
2013-02-18 16:16:00,70.7,43.9,30.27,South,180,9.0,9.0,38,0.00,,,0.00,meteohub,2013-02-18 21:16:00,
2013-02-18 16:17:00,70.5,46.4,30.27,West,270,6.0,9.0,42,0.00,,,0.00,meteohub,2013-02-18 21:17:00,
2013-02-18 16:20:00,70.3,46.2,30.27,South,180,8.0,9.0,42,0.00,,,0.00,meteohub,2013-02-18 21:20:00,
2013-02-18 16:21:00,70.2,46.6,30.27,SW,225,6.0,9.0,43,0.00,,,0.00,meteohub,2013-02-18 21:21:00,
2013-02-18 16:23:00,70.0,46.4,30.27,NW,315,4.0,9.0,43,0.00,,,0.00,meteohub,2013-02-18 21:23:00,
2013-02-18 16:26:00,70.2,46.6,30.27,SW,225,6.0,9.0,43,0.00,,,0.00,meteohub,2013-02-18 21:26:00,
2013-02-18 16:27:00,70.2,46.6,30.27,NW,315,5.0,9.0,43,0.00,,,0.00,meteohub,2013-02-18 21:27:00,
2013-02-18 16:32:00,70.3,46.2,30.27,SW,225,6.0,9.0,42,0.00,,,0.00,meteohub,2013-02-18 21:32:00,
2013-02-18 16:37:00,70.3,46.2,30.27,South,180,6.0,8.0,42,0.00,,,0.00,meteohub,2013-02-18 21:37:00,
2013-02-18 16:38:00,70.3,46.2,30.27,South,180,6.0,8.0,42,0.00,,,0.00,meteohub,2013-02-18 21:38:00,
2013-02-18 16:42:00,70.2,46.0,30.27,SW,225,5.0,8.0,42,0.00,,,0.00,meteohub,2013-02-18 21:42:00,
2013-02-18 16:43:00,70.2,46.0,30.27,SW,225,4.0,8.0,42,0.00,,,0.00,meteohub,2013-02-18 21:43:00,
2013-02-18 16:48:00,69.8,46.9,30.27,SW,225,7.0,8.0,44,0.00,,,0.00,meteohub,2013-02-18 21:48:00,
2013-02-18 16:49:00,69.8,46.9,30.27,SW,225,7.0,8.0,44,0.00,,,0.00,meteohub,2013-02-18 21:49:00,
2013-02-18 16:52:00,69.3,46.9,30.27,West,270,5.0,8.0,45,0.00,,,0.00,meteohub,2013-02-18 21:52:00,
2013-02-18 16:54:00,69.3,47.7,30.27,SW,225,5.0,8.0,46,0.00,,,0.00,meteohub,2013-02-18 21:54:00,
2013-02-18 16:57:00,69.1,47.5,30.27,SW,225,4.0,8.0,46,0.00,,,0.00,meteohub,2013-02-18 21:57:00,
2013-02-18 16:59:00,68.9,47.8,30.27,SW,225,5.0,8.0,47,0.00,,,0.00,meteohub,2013-02-18 21:59:00,
2013-02-18 17:02:00,68.9,47.3,30.27,WSW,248,5.0,8.0,46,0.00,,,0.00,meteohub,2013-02-18 22:02:00,
2013-02-18 17:03:00,68.9,47.8,30.27,West,270,4.0,8.0,47,0.00,,,0.00,meteohub,2013-02-18 22:03:00,
2013-02-18 17:06:00,68.9,47.8,30.27,SW,225,3.0,7.0,47,0.00,,,0.00,meteohub,2013-02-18 22:06:00,
2013-02-18 17:07:00,68.7,47.7,30.27,NW,315,2.0,7.0,47,0.00,,,0.00,meteohub,2013-02-18 22:07:00,
2013-02-18 17:08:00,68.9,47.8,30.27,SW,225,4.0,7.0,47,0.00,,,0.00,meteohub,2013-02-18 22:08:00,
2013-02-18 17:11:00,68.7,47.1,30.27,SW,225,5.0,7.0,46,0.00,,,0.00,meteohub,2013-02-18 22:11:00,
2013-02-18 17:13:00,68.7,48.2,30.27,NW,315,2.0,7.0,48,0.00,,,0.00,meteohub,2013-02-18 22:13:00,
2013-02-18 17:14:00,68.7,48.7,30.27,West,270,1.0,7.0,49,0.00,,,0.00,meteohub,2013-02-18 22:14:00,
2013-02-18 17:16:00,68.7,48.7,30.27,NW,315,4.0,6.0,49,0.00,,,0.00,meteohub,2013-02-18 22:16:00,
2013-02-18 17:20:00,68.5,48.6,30.27,North,0,4.0,6.0,49,0.00,,,0.00,meteohub,2013-02-18 22:20:00,
2013-02-18 17:22:00,68.5,48.6,30.26,NW,315,3.0,5.0,49,0.00,,,0.00,meteohub,2013-02-18 22:22:00,
2013-02-18 17:25:00,68.4,47.8,30.26,West,270,3.0,5.0,48,0.00,,,0.00,meteohub,2013-02-18 22:25:00,
2013-02-18 17:26:00,68.4,48.4,30.26,SW,225,4.0,5.0,49,0.00,,,0.00,meteohub,2013-02-18 22:26:00,
2013-02-18 17:27:00,68.4,48.4,30.26,West,270,4.0,5.0,49,0.00,,,0.00,meteohub,2013-02-18 22:27:00,
2013-02-18 17:31:00,68.2,47.7,30.26,West,270,2.0,4.0,48,0.00,,,0.00,meteohub,2013-02-18 22:31:00,
2013-02-18 17:32:00,68.2,47.7,30.26,SW,225,2.0,4.0,48,0.00,,,0.00,meteohub,2013-02-18 22:32:00,
2013-02-18 17:37:00,68.0,47.7,30.26,NE,45,0.0,4.0,48,0.00,,,0.00,meteohub,2013-02-18 22:37:00,
2013-02-18 17:41:00,67.8,48.0,30.26,East,90,2.0,4.0,49,0.00,,,0.00,meteohub,2013-02-18 22:41:00,
2013-02-18 17:42:00,67.6,47.8,30.26,West,270,2.0,4.0,49,0.00,,,0.00,meteohub,2013-02-18 22:42:00,
2013-02-18 17:44:00,67.6,47.8,30.27,West,270,2.0,4.0,49,0.00,,,0.00,meteohub,2013-02-18 22:44:00,
2013-02-18 17:46:00,67.6,47.8,30.26,West,270,2.0,4.0,49,0.00,,,0.00,meteohub,2013-02-18 22:46:00,
2013-02-18 17:49:00,67.5,48.2,30.26,NW,315,3.0,4.0,50,0.00,,,0.00,meteohub,2013-02-18 22:49:00,
2013-02-18 17:51:00,67.5,48.2,30.26,West,270,3.0,3.0,50,0.00,,,0.00,meteohub,2013-02-18 22:51:00,
2013-02-18 17:56:00,66.4,47.7,30.26,West,270,4.0,4.0,51,0.00,,,0.00,meteohub,2013-02-18 22:56:00,
2013-02-18 17:57:00,66.4,47.7,30.26,West,270,4.0,4.0,51,0.00,,,0.00,meteohub,2013-02-18 22:57:00,
2013-02-18 18:01:00,65.7,48.6,30.27,West,270,3.0,4.0,54,0.00,,,0.00,meteohub,2013-02-18 23:01:00,
2013-02-18 18:02:00,65.7,48.6,30.27,West,270,3.0,4.0,54,0.00,,,0.00,meteohub,2013-02-18 23:02:00,
2013-02-18 18:03:00,65.5,48.9,30.27,West,270,2.0,4.0,55,0.00,,,0.00,meteohub,2013-02-18 23:03:00,
2013-02-18 18:07:00,65.3,48.7,30.26,NW,315,0.0,4.0,55,0.00,,,0.00,meteohub,2013-02-18 23:07:00,
2013-02-18 18:08:00,65.1,48.6,30.26,West,270,1.0,4.0,55,0.00,,,0.00,meteohub,2013-02-18 23:08:00,
2013-02-18 18:09:00,65.1,48.6,30.26,West,270,0.0,4.0,55,0.00,,,0.00,meteohub,2013-02-18 23:09:00,
2013-02-18 18:14:00,64.8,48.2,30.26,WNW,293,2.0,4.0,55,0.00,,,0.00,meteohub,2013-02-18 23:14:00,
2013-02-18 18:16:00,64.6,48.6,30.27,West,270,2.0,4.0,56,0.00,,,0.00,meteohub,2013-02-18 23:16:00,
2013-02-18 18:20:00,64.2,48.2,30.27,West,270,2.0,4.0,56,0.00,,,0.00,meteohub,2013-02-18 23:20:00,
2013-02-18 18:21:00,64.2,48.2,30.26,West,270,1.0,2.0,56,0.00,,,0.00,meteohub,2013-02-18 23:21:00,
2013-02-18 18:25:00,63.9,47.8,30.26,West,270,0.0,2.0,56,0.00,,,0.00,meteohub,2013-02-18 23:25:00,
2013-02-18 18:26:00,63.7,47.7,30.26,West,270,0.0,2.0,56,0.00,,,0.00,meteohub,2013-02-18 23:26:00,
2013-02-18 18:27:00,63.7,47.7,30.27,West,270,0.0,2.0,56,0.00,,,0.00,meteohub,2013-02-18 23:27:00,
2013-02-18 18:31:00,63.1,47.1,30.26,West,270,0.0,2.0,56,0.00,,,0.00,meteohub,2013-02-18 23:31:00,
2013-02-18 18:32:00,63.0,46.9,30.27,West,270,0.0,2.0,56,0.00,,,0.00,meteohub,2013-02-18 23:32:00,
2013-02-18 18:34:00,62.6,47.1,30.26,West,270,0.0,2.0,57,0.00,,,0.00,meteohub,2013-02-18 23:34:00,
2013-02-18 18:36:00,62.4,47.8,30.26,West,270,1.0,1.0,59,0.00,,,0.00,meteohub,2013-02-18 23:36:00,
2013-02-18 18:38:00,62.4,47.8,30.26,West,270,0.0,1.0,59,0.00,,,0.00,meteohub,2013-02-18 23:38:00,
2013-02-18 18:41:00,62.1,48.0,30.26,West,270,0.0,1.0,60,0.00,,,0.00,meteohub,2013-02-18 23:41:00,
2013-02-18 18:42:00,62.1,48.0,30.26,West,270,0.0,1.0,60,0.00,,,0.00,meteohub,2013-02-18 23:42:00,
2013-02-18 18:44:00,61.9,47.8,30.26,West,270,0.0,1.0,60,0.00,,,0.00,meteohub,2013-02-18 23:44:00,
2013-02-18 18:47:00,61.5,47.5,30.26,West,270,0.0,1.0,60,0.00,,,0.00,meteohub,2013-02-18 23:47:00,
2013-02-18 18:49:00,61.3,47.8,30.26,West,270,0.0,1.0,61,0.00,,,0.00,meteohub,2013-02-18 23:49:00,
2013-02-18 18:53:00,61.0,47.5,30.26,West,270,0.0,1.0,61,0.00,,,0.00,meteohub,2013-02-18 23:53:00,
2013-02-18 18:54:00,60.8,47.7,30.26,West,270,0.0,1.0,62,0.00,,,0.00,meteohub,2013-02-18 23:54:00,
2013-02-18 18:59:00,60.4,47.8,30.26,West,270,0.0,0.0,63,0.00,,,0.00,meteohub,2013-02-18 23:59:00,
2013-02-18 19:00:00,60.4,47.8,30.26,West,270,0.0,0.0,63,0.00,,,0.00,meteohub,2013-02-19 00:00:00,
2013-02-18 19:05:00,59.9,47.7,30.27,West,270,0.0,0.0,64,0.00,,,0.00,meteohub,2013-02-19 00:05:00,
2013-02-18 19:06:00,59.9,47.7,30.27,West,270,0.0,0.0,64,0.00,,,0.00,meteohub,2013-02-19 00:06:00,
2013-02-18 19:11:00,59.7,48.0,30.26,West,270,0.0,0.0,65,0.00,,,0.00,meteohub,2013-02-19 00:11:00,
2013-02-18 19:12:00,59.5,47.8,30.26,West,270,0.0,0.0,65,0.00,,,0.00,meteohub,2013-02-19 00:12:00,
2013-02-18 19:16:00,59.4,47.7,30.26,West,270,0.0,0.0,65,0.00,,,0.00,meteohub,2013-02-19 00:16:00,
2013-02-18 19:17:00,59.4,47.7,30.26,West,270,0.0,0.0,65,0.00,,,0.00,meteohub,2013-02-19 00:17:00,
2013-02-18 19:18:00,59.4,47.7,30.26,West,270,0.0,0.0,65,0.00,,,0.00,meteohub,2013-02-19 00:18:00,
2013-02-18 19:21:00,59.2,47.8,30.26,West,270,0.0,0.0,66,0.00,,,0.00,meteohub,2013-02-19 00:21:00,
2013-02-18 19:23:00,59.0,47.7,30.26,West,270,0.0,0.0,66,0.00,,,0.00,meteohub,2013-02-19 00:23:00,
2013-02-18 19:24:00,59.0,47.7,30.27,West,270,0.0,0.0,66,0.00,,,0.00,meteohub,2013-02-19 00:24:00,
2013-02-18 19:27:00,58.8,47.8,30.27,West,270,0.0,0.0,67,0.00,,,0.00,meteohub,2013-02-19 00:27:00,
2013-02-18 19:31:00,58.5,47.5,30.27,NW,315,1.0,0.0,67,0.00,,,0.00,meteohub,2013-02-19 00:31:00,
2013-02-18 19:32:00,58.5,47.5,30.27,NW,315,0.0,0.0,67,0.00,,,0.00,meteohub,2013-02-19 00:32:00,
2013-02-18 19:33:00,58.5,47.5,30.27,West,270,0.0,0.0,67,0.00,,,0.00,meteohub,2013-02-19 00:33:00,
2013-02-18 19:36:00,58.5,48.4,30.27,SW,225,2.0,2.0,69,0.00,,,0.00,meteohub,2013-02-19 00:36:00,
2013-02-18 19:37:00,58.5,48.4,30.26,SW,225,0.0,1.0,69,0.00,,,0.00,meteohub,2013-02-19 00:37:00,
2013-02-18 19:39:00,58.5,48.4,30.27,SW,225,0.0,1.0,69,0.00,,,0.00,meteohub,2013-02-19 00:39:00,
2013-02-18 19:43:00,58.3,47.8,30.27,NE,45,0.0,2.0,68,0.00,,,0.00,meteohub,2013-02-19 00:43:00,
2013-02-18 19:44:00,58.3,47.8,30.27,NE,45,0.0,2.0,68,0.00,,,0.00,meteohub,2013-02-19 00:44:00,
2013-02-18 19:45:00,58.3,47.8,30.27,NE,45,0.0,2.0,68,0.00,,,0.00,meteohub,2013-02-19 00:45:00,
2013-02-18 19:49:00,58.1,47.7,30.27,NE,45,0.0,2.0,68,0.00,,,0.00,meteohub,2013-02-19 00:49:00,
2013-02-18 19:50:00,58.1,47.7,30.27,NE,45,0.0,2.0,68,0.00,,,0.00,meteohub,2013-02-19 00:50:00,
2013-02-18 19:56:00,57.9,47.8,30.27,NE,45,0.0,1.0,69,0.00,,,0.00,meteohub,2013-02-19 00:56:00,
2013-02-18 20:01:00,57.7,47.7,30.27,NW,315,0.0,1.0,69,0.00,,,0.00,meteohub,2013-02-19 01:01:00,
2013-02-18 20:02:00,57.7,47.7,30.27,NW,315,0.0,1.0,69,0.00,,,0.00,meteohub,2013-02-19 01:02:00,
2013-02-18 20:06:00,57.7,48.0,30.27,North,0,1.0,1.0,70,0.00,,,0.00,meteohub,2013-02-19 01:06:00,
2013-02-18 20:08:00,57.6,47.8,30.27,North,0,1.0,1.0,70,0.00,,,0.00,meteohub,2013-02-19 01:08:00,
2013-02-18 20:09:00,57.6,48.2,30.27,North,0,2.0,2.0,71,0.00,,,0.00,meteohub,2013-02-19 01:09:00,
2013-02-18 20:12:00,57.7,49.1,30.28,North,0,2.0,2.0,73,0.00,,,0.00,meteohub,2013-02-19 01:12:00,
2013-02-18 20:15:00,57.7,49.5,30.27,North,0,2.0,2.0,74,0.00,,,0.00,meteohub,2013-02-19 01:15:00,
2013-02-18 20:17:00,57.7,49.5,30.27,North,0,2.0,2.0,74,0.00,,,0.00,meteohub,2013-02-19 01:17:00,
2013-02-18 20:20:00,57.9,50.0,30.27,North,0,2.0,2.0,75,0.00,,,0.00,meteohub,2013-02-19 01:20:00,
2013-02-18 20:23:00,57.7,49.8,30.27,North,0,0.0,2.0,75,0.00,,,0.00,meteohub,2013-02-19 01:23:00,
2013-02-18 20:25:00,57.7,49.8,30.28,North,0,1.0,2.0,75,0.00,,,0.00,meteohub,2013-02-19 01:25:00,
2013-02-18 20:26:00,57.7,49.8,30.28,North,0,1.0,2.0,75,0.00,,,0.00,meteohub,2013-02-19 01:26:00,
2013-02-18 20:28:00,57.6,49.6,30.27,North,0,2.0,2.0,75,0.00,,,0.00,meteohub,2013-02-19 01:28:00,
2013-02-18 20:31:00,57.4,49.5,30.28,North,0,1.0,2.0,75,0.00,,,0.00,meteohub,2013-02-19 01:31:00,
2013-02-18 20:33:00,57.2,49.3,30.28,North,0,1.0,2.0,75,0.00,,,0.00,meteohub,2013-02-19 01:33:00,
2013-02-18 20:36:00,57.2,49.6,30.27,North,0,2.0,2.0,76,0.00,,,0.00,meteohub,2013-02-19 01:36:00,
2013-02-18 20:37:00,57.2,49.6,30.28,North,0,1.0,2.0,76,0.00,,,0.00,meteohub,2013-02-19 01:37:00,
2013-02-18 20:39:00,57.2,49.6,30.28,North,0,1.0,2.0,76,0.00,,,0.00,meteohub,2013-02-19 01:39:00,
2013-02-18 20:42:00,57.0,49.8,30.27,North,0,0.0,2.0,77,0.00,,,0.00,meteohub,2013-02-19 01:42:00,
2013-02-18 20:43:00,57.0,49.8,30.27,North,0,0.0,2.0,77,0.00,,,0.00,meteohub,2013-02-19 01:43:00,
2013-02-18 20:46:00,56.8,49.3,30.27,North,0,0.0,2.0,76,0.00,,,0.00,meteohub,2013-02-19 01:46:00,
2013-02-18 20:47:00,56.7,49.1,30.27,North,0,0.0,2.0,76,0.00,,,0.00,meteohub,2013-02-19 01:47:00,
2013-02-18 20:48:00,56.7,49.1,30.27,North,0,0.0,2.0,76,0.00,,,0.00,meteohub,2013-02-19 01:48:00,
2013-02-18 20:51:00,56.5,48.9,30.27,North,0,1.0,2.0,76,0.00,,,0.00,meteohub,2013-02-19 01:51:00,
2013-02-18 20:53:00,56.3,48.9,30.27,North,0,2.0,2.0,76,0.00,,,0.00,meteohub,2013-02-19 01:53:00,
2013-02-18 20:54:00,56.3,48.9,30.27,North,0,2.0,2.0,76,0.00,,,0.00,meteohub,2013-02-19 01:54:00,
2013-02-18 20:56:00,56.3,49.1,30.27,North,0,0.0,2.0,77,0.00,,,0.00,meteohub,2013-02-19 01:56:00,
2013-02-18 20:59:00,56.1,48.9,30.27,North,0,1.0,2.0,77,0.00,,,0.00,meteohub,2013-02-19 01:59:00,
2013-02-18 21:00:00,56.1,48.9,30.27,North,0,1.0,2.0,77,0.00,,,0.00,meteohub,2013-02-19 02:00:00,
2013-02-18 21:04:00,56.1,48.9,30.27,East,90,0.0,2.0,77,0.00,,,0.00,meteohub,2013-02-19 02:04:00,
2013-02-18 21:06:00,55.9,48.9,30.27,North,0,2.0,2.0,77,0.00,,,0.00,meteohub,2013-02-19 02:06:00,
2013-02-18 21:10:00,55.8,48.7,30.27,North,0,0.0,2.0,77,0.00,,,0.00,meteohub,2013-02-19 02:10:00,
2013-02-18 21:12:00,55.8,48.7,30.27,North,0,0.0,2.0,77,0.00,,,0.00,meteohub,2013-02-19 02:12:00,
2013-02-18 21:17:00,55.6,48.6,30.27,North,0,0.0,2.0,77,0.00,,,0.00,meteohub,2013-02-19 02:17:00,
2013-02-18 21:19:00,55.6,48.6,30.27,North,0,0.0,2.0,77,0.00,,,0.00,meteohub,2013-02-19 02:19:00,
2013-02-18 21:22:00,55.4,48.4,30.27,North,0,0.0,2.0,77,0.00,,,0.00,meteohub,2013-02-19 02:22:00,
2013-02-18 21:23:00,55.4,48.4,30.27,North,0,0.0,2.0,77,0.00,,,0.00,meteohub,2013-02-19 02:23:00,
2013-02-18 21:25:00,55.2,48.6,30.27,North,0,1.0,1.0,78,0.00,,,0.00,meteohub,2013-02-19 02:25:00,
2013-02-18 21:28:00,55.0,48.6,30.27,North,0,0.0,1.0,79,0.00,,,0.00,meteohub,2013-02-19 02:28:00,
2013-02-18 21:29:00,55.0,48.6,30.27,North,0,0.0,1.0,79,0.00,,,0.00,meteohub,2013-02-19 02:29:00,
2013-02-18 21:31:00,54.9,48.6,30.27,North,0,0.0,1.0,79,0.00,,,0.00,meteohub,2013-02-19 02:31:00,
2013-02-18 21:34:00,54.7,48.4,30.27,North,0,0.0,1.0,79,0.00,,,0.00,meteohub,2013-02-19 02:34:00,
2013-02-18 21:39:00,54.5,48.4,30.27,North,0,0.0,1.0,80,0.00,,,0.00,meteohub,2013-02-19 02:39:00,
2013-02-18 21:40:00,54.5,48.4,30.26,North,0,0.0,1.0,80,0.00,,,0.00,meteohub,2013-02-19 02:40:00,
2013-02-18 21:44:00,54.3,48.2,30.27,East,90,0.0,1.0,80,0.00,,,0.00,meteohub,2013-02-19 02:44:00,
2013-02-18 21:46:00,54.1,48.4,30.27,East,90,0.0,1.0,81,0.00,,,0.00,meteohub,2013-02-19 02:46:00,
2013-02-18 21:51:00,54.0,48.2,30.26,SE,135,1.0,1.0,81,0.00,,,0.00,meteohub,2013-02-19 02:51:00,
2013-02-18 21:52:00,53.8,48.0,30.26,SE,135,0.0,1.0,81,0.00,,,0.00,meteohub,2013-02-19 02:52:00,
2013-02-18 21:57:00,53.8,48.0,30.26,NE,45,0.0,1.0,81,0.00,,,0.00,meteohub,2013-02-19 02:57:00,
2013-02-18 21:58:00,53.8,48.0,30.26,NE,45,1.0,1.0,81,0.00,,,0.00,meteohub,2013-02-19 02:58:00,
2013-02-18 22:02:00,53.6,47.8,30.26,NE,45,1.0,1.0,81,0.00,,,0.00,meteohub,2013-02-19 03:02:00,
2013-02-18 22:04:00,53.8,48.0,30.26,NE,45,0.0,1.0,81,0.00,,,0.00,meteohub,2013-02-19 03:04:00,
2013-02-18 22:06:00,54.0,48.2,30.26,NE,45,0.0,1.0,81,0.00,,,0.00,meteohub,2013-02-19 03:06:00,
2013-02-18 22:08:00,54.1,48.4,30.26,NE,45,1.0,1.0,81,0.00,,,0.00,meteohub,2013-02-19 03:08:00,
2013-02-18 22:10:00,54.3,48.6,30.26,NE,45,0.0,1.0,81,0.00,,,0.00,meteohub,2013-02-19 03:10:00,
2013-02-18 22:11:00,54.3,48.6,30.26,NE,45,0.0,1.0,81,0.00,,,0.00,meteohub,2013-02-19 03:11:00,
2013-02-18 22:14:00,54.3,48.6,30.26,North,0,0.0,1.0,81,0.00,,,0.00,meteohub,2013-02-19 03:14:00,
2013-02-18 22:16:00,54.5,48.7,30.26,North,0,0.0,1.0,81,0.00,,,0.00,meteohub,2013-02-19 03:16:00,
2013-02-18 22:18:00,54.5,48.7,30.26,North,0,0.0,1.0,81,0.00,,,0.00,meteohub,2013-02-19 03:18:00,
2013-02-18 22:19:00,54.5,48.7,30.26,North,0,0.0,1.0,81,0.00,,,0.00,meteohub,2013-02-19 03:19:00,
2013-02-18 22:22:00,54.5,48.7,30.26,North,0,0.0,1.0,81,0.00,,,0.00,meteohub,2013-02-19 03:22:00,
2013-02-18 22:24:00,54.3,48.6,30.26,North,0,0.0,1.0,81,0.00,,,0.00,meteohub,2013-02-19 03:24:00,
2013-02-18 22:25:00,54.3,48.6,30.26,North,0,0.0,1.0,81,0.00,,,0.00,meteohub,2013-02-19 03:25:00,
2013-02-18 22:28:00,54.3,48.6,30.26,North,0,0.0,1.0,81,0.00,,,0.00,meteohub,2013-02-19 03:28:00,
2013-02-18 22:29:00,54.1,48.4,30.26,North,0,0.0,1.0,81,0.00,,,0.00,meteohub,2013-02-19 03:29:00,
2013-02-18 22:31:00,54.1,48.4,30.26,North,0,0.0,1.0,81,0.00,,,0.00,meteohub,2013-02-19 03:31:00,
2013-02-18 22:34:00,54.1,48.4,30.26,North,0,0.0,1.0,81,0.00,,,0.00,meteohub,2013-02-19 03:34:00,
2013-02-18 22:35:00,54.0,48.2,30.26,North,0,0.0,1.0,81,0.00,,,0.00,meteohub,2013-02-19 03:35:00,
2013-02-18 22:37:00,54.0,48.2,30.26,North,0,0.0,0.0,81,0.00,,,0.00,meteohub,2013-02-19 03:37:00,
2013-02-18 22:40:00,54.0,48.2,30.25,NE,45,1.0,0.0,81,0.00,,,0.00,meteohub,2013-02-19 03:40:00,
2013-02-18 22:43:00,53.8,48.0,30.25,NE,45,0.0,1.0,81,0.00,,,0.00,meteohub,2013-02-19 03:43:00,
2013-02-18 22:46:00,53.6,47.8,30.25,NE,45,0.0,1.0,81,0.00,,,0.00,meteohub,2013-02-19 03:46:00,
2013-02-18 22:48:00,53.6,47.8,30.25,NE,45,0.0,1.0,81,0.00,,,0.00,meteohub,2013-02-19 03:48:00,
2013-02-18 22:52:00,53.6,47.8,30.25,NE,45,0.0,1.0,81,0.00,,,0.00,meteohub,2013-02-19 03:52:00,
2013-02-18 22:57:00,53.4,48.0,30.25,North,0,0.0,0.0,82,0.00,,,0.00,meteohub,2013-02-19 03:57:00,
2013-02-18 22:58:00,53.4,48.0,30.25,North,0,1.0,0.0,82,0.00,,,0.00,meteohub,2013-02-19 03:58:00,
2013-02-18 23:01:00,53.4,48.0,30.25,North,0,0.0,1.0,82,0.00,,,0.00,meteohub,2013-02-19 04:01:00,
2013-02-18 23:02:00,53.4,48.0,30.25,North,0,0.0,1.0,82,0.00,,,0.00,meteohub,2013-02-19 04:02:00,
2013-02-18 23:04:00,53.4,48.0,30.25,NE,45,1.0,1.0,82,0.00,,,0.00,meteohub,2013-02-19 04:04:00,
2013-02-18 23:07:00,53.2,47.8,30.25,NE,45,0.0,1.0,82,0.00,,,0.00,meteohub,2013-02-19 04:07:00,
2013-02-18 23:08:00,53.2,47.8,30.24,North,0,1.0,1.0,82,0.00,,,0.00,meteohub,2013-02-19 04:08:00,
2013-02-18 23:11:00,53.2,47.8,30.25,NE,45,1.0,1.0,82,0.00,,,0.00,meteohub,2013-02-19 04:11:00,
2013-02-18 23:12:00,53.2,48.2,30.24,North,0,2.0,2.0,83,0.00,,,0.00,meteohub,2013-02-19 04:12:00,
2013-02-18 23:14:00,53.4,48.4,30.24,NE,45,2.0,2.0,83,0.00,,,0.00,meteohub,2013-02-19 04:14:00,
2013-02-18 23:17:00,53.4,48.4,30.24,East,90,2.0,2.0,83,0.00,,,0.00,meteohub,2013-02-19 04:17:00,
2013-02-18 23:19:00,53.8,48.4,30.24,SE,135,2.0,2.0,82,0.00,,,0.00,meteohub,2013-02-19 04:19:00,
2013-02-18 23:20:00,54.0,48.6,30.24,NE,45,2.0,2.0,82,0.00,,,0.00,meteohub,2013-02-19 04:20:00,
2013-02-18 23:23:00,54.3,48.9,30.24,East,90,4.0,4.0,82,0.00,,,0.00,meteohub,2013-02-19 04:23:00,
2013-02-18 23:26:00,54.9,49.5,30.24,NE,45,2.0,4.0,82,0.00,,,0.00,meteohub,2013-02-19 04:26:00,
2013-02-18 23:27:00,55.2,49.8,30.24,SE,135,2.0,4.0,82,0.00,,,0.00,meteohub,2013-02-19 04:27:00,
2013-02-18 23:29:00,55.4,50.0,30.24,NE,45,3.0,4.0,82,0.00,,,0.00,meteohub,2013-02-19 04:29:00,
2013-02-18 23:32:00,56.5,50.4,30.24,East,90,3.0,5.0,80,0.00,,,0.00,meteohub,2013-02-19 04:32:00,
2013-02-18 23:33:00,56.7,50.2,30.24,SE,135,2.0,5.0,79,0.00,,,0.00,meteohub,2013-02-19 04:33:00,
2013-02-18 23:36:00,57.0,50.2,30.24,SE,135,2.0,5.0,78,0.00,,,0.00,meteohub,2013-02-19 04:36:00,
2013-02-18 23:38:00,57.2,50.0,30.24,East,90,3.0,5.0,77,0.00,,,0.00,meteohub,2013-02-19 04:38:00,
2013-02-18 23:39:00,57.4,49.8,30.24,SE,135,3.0,5.0,76,0.00,,,0.00,meteohub,2013-02-19 04:39:00,
2013-02-18 23:42:00,57.6,50.0,30.24,East,90,3.0,5.0,76,0.00,,,0.00,meteohub,2013-02-19 04:42:00,
2013-02-18 23:43:00,57.7,49.8,30.24,East,90,2.0,5.0,75,0.00,,,0.00,meteohub,2013-02-19 04:43:00,
2013-02-18 23:45:00,57.9,50.0,30.24,SE,135,4.0,5.0,75,0.00,,,0.00,meteohub,2013-02-19 04:45:00,
2013-02-18 23:47:00,57.9,50.0,30.25,East,90,2.0,3.0,75,0.00,,,0.00,meteohub,2013-02-19 04:47:00,
2013-02-18 23:49:00,57.9,50.0,30.24,East,90,2.0,3.0,75,0.00,,,0.00,meteohub,2013-02-19 04:49:00,
2013-02-18 23:50:00,58.1,50.2,30.25,SE,135,1.0,4.0,75,0.00,,,0.00,meteohub,2013-02-19 04:50:00,
2013-02-18 23:52:00,58.1,49.8,30.25,SE,135,1.0,4.0,74,0.00,,,0.00,meteohub,2013-02-19 04:52:00,
2013-02-18 23:54:00,58.1,49.8,30.25,SE,135,2.0,4.0,74,0.00,,,0.00,meteohub,2013-02-19 04:54:00,
2013-02-18 23:56:00,58.1,49.8,30.24,East,90,2.0,4.0,74,0.00,,,0.00,meteohub,2013-02-19 04:56:00,
2013-02-18 23:58:00,58.1,49.8,30.25,NE,45,2.0,4.0,74,0.00,,,0.00,meteohub,2013-02-19 04:58:00,
2013-02-18 23:59:00,57.9,49.6,30.25,SE,135,2.0,4.0,74,0.00,,,0.00,meteohub,2013-02-19 04:59:00,